GEFSCGP_prec_meanprecacc_030.txt.gz
Total_Precipitation_Accumulation
0.29 0.38 0.28 0.11 0.06 0.03 0.02 0.03 0.02 0.01 0.00 0.01 0.00 0.00 0.00 0.00 0.00 0.00 0.00 0.00 0.00 0.00 0.00 0.00 0.00 0.00 0.00 0.00 0.00 0.00 0.00 0.00 0.00 0.00 0.00 0.01 0.01 0.01 0.00 0.00 0.00 0.00 0.00 0.00
0.38 0.29 0.13 0.07 0.07 0.06 0.05 0.06 0.04 0.02 0.01 0.01 0.01 0.00 0.00 0.00 0.00 0.00 0.00 0.00 0.00 0.00 0.00 0.00 0.00 0.00 0.00 0.00 0.00 0.00 0.00 0.00 0.00 0.00 0.00 0.01 0.01 0.01 0.00 0.00 0.00 0.00 0.00 0.00
0.28 0.14 0.11 0.14 0.13 0.11 0.08 0.06 0.05 0.04 0.02 0.02 0.02 0.01 0.00 0.00 0.00 0.00 0.00 0.00 0.00 0.00 0.00 0.00 0.00 0.00 0.00 0.00 0.00 0.00 0.00 0.00 0.00 0.00 0.00 0.01 0.01 0.01 0.00 0.00 0.00 0.00 0.00 0.00
0.27 0.14 0.18 0.25 0.18 0.13 0.11 0.05 0.06 0.07 0.09 0.07 0.04 0.03 0.00 0.00 0.00 0.00 0.00 0.00 0.00 0.00 0.00 0.00 0.00 0.00 0.00 0.00 0.00 0.00 0.00 0.00 0.00 0.00 0.00 0.00 0.01 0.00 0.00 0.00 0.00 0.00 0.00 0.00
0.32 0.18 0.21 0.30 0.18 0.11 0.11 0.06 0.10 0.13 0.15 0.15 0.08 0.05 0.01 0.00 0.00 0.00 0.00 0.00 0.00 0.00 0.00 0.00 0.00 0.00 0.00 0.00 0.00 0.00 0.00 0.00 0.00 0.00 0.00 0.00 0.00 0.00 0.00 0.00 0.00 0.00 0.00 0.00
0.26 0.21 0.24 0.24 0.17 0.15 0.17 0.22 0.23 0.26 0.31 0.29 0.11 0.08 0.03 0.00 0.00 0.00 0.00 0.00 0.00 0.00 0.00 0.00 0.00 0.00 0.00 0.00 0.00 0.00 0.00 0.00 0.00 0.00 0.00 0.00 0.00 0.00 0.00 0.00 0.00 0.00 0.00 0.00
0.40 0.30 0.25 0.28 0.38 0.36 0.41 0.62 0.69 0.56 0.49 0.27 0.07 0.07 0.03 0.00 0.00 0.00 0.00 0.00 0.00 0.00 0.00 0.00 0.00 0.00 0.00 0.00 0.00 0.00 0.00 0.00 0.00 0.00 0.00 0.00 0.00 0.00 0.00 0.00 0.00 0.00 0.00 0.00
0.46 0.36 0.23 0.34 0.53 0.54 0.49 0.63 0.68 0.45 0.26 0.11 0.05 0.04 0.01 0.00 0.00 0.00 0.00 0.00 0.00 0.00 0.00 0.00 0.00 0.00 0.00 0.00 0.00 0.00 0.00 0.00 0.00 0.00 0.00 0.00 0.00 0.00 0.00 0.00 0.00 0.00 0.00 0.00
0.36 0.30 0.18 0.25 0.40 0.46 0.47 0.50 0.44 0.47 0.30 0.16 0.07 0.03 0.01 0.00 0.00 0.00 0.00 0.00 0.00 0.00 0.00 0.00 0.00 0.00 0.00 0.00 0.00 0.00 0.00 0.00 0.00 0.00 0.00 0.00 0.00 0.00 0.00 0.00 0.00 0.00 0.00 0.00
0.37 0.45 0.27 0.31 0.50 0.58 0.51 0.42 0.48 0.71 0.50 0.26 0.09 0.03 0.01 0.00 0.00 0.00 0.00 0.00 0.00 0.00 0.00 0.00 0.00 0.00 0.00 0.00 0.00 0.00 0.00 0.00 0.00 0.00 0.00 0.00 0.00 0.00 0.00 0.00 0.00 0.00 0.00 0.00
0.39 0.60 0.43 0.47 0.61 0.56 0.55 0.57 0.55 0.51 0.38 0.32 0.16 0.04 0.01 0.01 0.00 0.00 0.00 0.00 0.00 0.00 0.00 0.00 0.00 0.00 0.00 0.00 0.00 0.00 0.00 0.00 0.00 0.00 0.00 0.00 0.00 0.00 0.00 0.00 0.00 0.00 0.00 0.00
0.37 0.68 0.55 0.41 0.37 0.40 0.45 0.44 0.44 0.48 0.37 0.30 0.21 0.06 0.01 0.01 0.01 0.01 0.01 0.01 0.01 0.00 0.00 0.00 0.00 0.00 0.00 0.00 0.00 0.00 0.00 0.00 0.00 0.00 0.00 0.00 0.00 0.00 0.00 0.00 0.00 0.00 0.00 0.00
0.36 0.70 0.71 0.52 0.46 0.51 0.53 0.41 0.37 0.43 0.49 0.41 0.27 0.09 0.02 0.01 0.01 0.02 0.02 0.02 0.02 0.01 0.01 0.00 0.00 0.00 0.00 0.00 0.00 0.00 0.00 0.00 0.00 0.00 0.00 0.00 0.00 0.00 0.00 0.00 0.00 0.00 0.00 0.00
0.52 0.73 0.66 0.48 0.43 0.48 0.41 0.33 0.35 0.50 0.56 0.38 0.22 0.09 0.04 0.02 0.02 0.02 0.02 0.02 0.02 0.02 0.01 0.01 0.00 0.00 0.00 0.00 0.00 0.00 0.00 0.00 0.00 0.00 0.00 0.00 0.00 0.00 0.00 0.00 0.00 0.00 0.00 0.00
0.51 0.73 0.58 0.36 0.27 0.37 0.33 0.30 0.32 0.38 0.38 0.33 0.19 0.11 0.07 0.04 0.03 0.03 0.02 0.02 0.02 0.01 0.01 0.00 0.00 0.00 0.00 0.00 0.00 0.00 0.00 0.00 0.00 0.00 0.00 0.00 0.00 0.00 0.00 0.00 0.00 0.00 0.00 0.00
0.39 0.60 0.60 0.42 0.24 0.29 0.30 0.26 0.25 0.28 0.30 0.27 0.21 0.17 0.07 0.03 0.02 0.02 0.01 0.01 0.01 0.01 0.00 0.00 0.00 0.00 0.00 0.00 0.00 0.00 0.00 0.00 0.00 0.00 0.00 0.00 0.00 0.00 0.00 0.00 0.00 0.00 0.00 0.00
0.27 0.45 0.60 0.44 0.27 0.29 0.28 0.20 0.20 0.23 0.22 0.21 0.20 0.15 0.06 0.04 0.02 0.01 0.01 0.01 0.01 0.00 0.00 0.00 0.00 0.00 0.00 0.00 0.00 0.00 0.00 0.00 0.00 0.00 0.00 0.00 0.00 0.00 0.00 0.00 0.00 0.00 0.00 0.00
0.15 0.31 0.46 0.34 0.26 0.29 0.18 0.12 0.14 0.16 0.16 0.15 0.13 0.08 0.04 0.02 0.01 0.00 0.00 0.00 0.00 0.00 0.00 0.00 0.00 0.00 0.00 0.00 0.00 0.00 0.00 0.00 0.00 0.00 0.00 0.00 0.00 0.00 0.00 0.00 0.00 0.00 0.00 0.00
0.06 0.18 0.27 0.22 0.17 0.12 0.08 0.07 0.08 0.10 0.10 0.08 0.05 0.03 0.02 0.01 0.01 0.00 0.00 0.00 0.00 0.00 0.00 0.00 0.00 0.00 0.00 0.00 0.00 0.00 0.00 0.00 0.00 0.00 0.00 0.00 0.00 0.00 0.00 0.00 0.00 0.00 0.00 0.00
0.04 0.10 0.16 0.12 0.09 0.06 0.02 0.01 0.01 0.03 0.05 0.02 0.01 0.01 0.01 0.01 0.01 0.01 0.00 0.00 0.00 0.00 0.00 0.00 0.00 0.00 0.00 0.00 0.00 0.00 0.00 0.00 0.00 0.00 0.00 0.00 0.00 0.00 0.00 0.00 0.00 0.00 0.00 0.00
0.04 0.07 0.08 0.07 0.04 0.01 0.00 0.00 0.00 0.02 0.01 0.00 0.00 0.00 0.00 0.00 0.01 0.00 0.00 0.00 0.00 0.00 0.00 0.00 0.00 0.00 0.00 0.00 0.00 0.00 0.00 0.00 0.00 0.00 0.00 0.00 0.00 0.00 0.00 0.00 0.00 0.00 0.00 0.00
0.01 0.02 0.03 0.03 0.02 0.00 0.00 0.00 0.00 0.00 0.00 0.00 0.00 0.00 0.00 0.00 0.00 0.00 0.00 0.00 0.00 0.00 0.00 0.00 0.00 0.00 0.00 0.00 0.00 0.00 0.00 0.00 0.00 0.00 0.00 0.00 0.00 0.00 0.00 0.00 0.00 0.00 0.00 0.00
0.00 0.00 0.00 0.00 0.00 0.00 0.00 0.00 0.00 0.00 0.00 0.00 0.00 0.00 0.00 0.00 0.00 0.00 0.00 0.00 0.00 0.00 0.00 0.00 0.00 0.00 0.00 0.00 0.00 0.00 0.00 0.00 0.00 0.00 0.00 0.00 0.00 0.00 0.00 0.00 0.00 0.00 0.00 0.00
0.00 0.00 0.00 0.00 0.00 0.00 0.00 0.00 0.00 0.00 0.00 0.00 0.00 0.00 0.00 0.00 0.00 0.00 0.00 0.00 0.00 0.00 0.00 0.00 0.00 0.00 0.00 0.00 0.00 0.00 0.00 0.00 0.00 0.00 0.00 0.00 0.00 0.00 0.00 0.00 0.00 0.00 0.00 0.00
0.00 0.00 0.00 0.00 0.00 0.00 0.00 0.00 0.00 0.00 0.00 0.00 0.00 0.00 0.00 0.00 0.00 0.00 0.00 0.00 0.00 0.00 0.00 0.00 0.00 0.00 0.00 0.00 0.00 0.00 0.00 0.00 0.00 0.00 0.00 0.00 0.00 0.00 0.00 0.00 0.00 0.00 0.00 0.00
0.00 0.00 0.00 0.00 0.00 0.00 0.00 0.00 0.00 0.00 0.00 0.00 0.00 0.00 0.00 0.00 0.00 0.00 0.00 0.00 0.00 0.00 0.00 0.00 0.00 0.00 0.00 0.00 0.00 0.00 0.00 0.00 0.00 0.00 0.00 0.00 0.00 0.00 0.00 0.00 0.00 0.00 0.00 0.00

GEFSCGP_prec_meanprecacc_036.txt.gz
Total_Precipitation_Accumulation
0.29 0.38 0.28 0.12 0.06 0.03 0.02 0.03 0.02 0.01 0.00 0.01 0.00 0.00 0.00 0.00 0.00 0.00 0.00 0.00 0.00 0.00 0.00 0.00 0.00 0.00 0.00 0.00 0.00 0.00 0.00 0.00 0.00 0.00 0.00 0.02 0.05 0.07 0.08 0.07 0.06 0.04 0.02 0.01
0.38 0.29 0.13 0.07 0.07 0.06 0.05 0.06 0.04 0.02 0.01 0.01 0.01 0.00 0.00 0.00 0.00 0.00 0.00 0.00 0.00 0.00 0.00 0.00 0.00 0.00 0.00 0.00 0.00 0.00 0.00 0.00 0.00 0.00 0.01 0.03 0.07 0.09 0.11 0.09 0.06 0.04 0.02 0.00
0.28 0.14 0.11 0.14 0.13 0.12 0.08 0.06 0.05 0.04 0.02 0.02 0.02 0.01 0.00 0.00 0.00 0.00 0.00 0.00 0.00 0.00 0.00 0.00 0.00 0.00 0.00 0.00 0.00 0.00 0.00 0.00 0.00 0.00 0.00 0.02 0.04 0.06 0.05 0.04 0.04 0.02 0.01 0.00
0.27 0.14 0.18 0.25 0.18 0.13 0.11 0.05 0.06 0.07 0.09 0.07 0.04 0.03 0.00 0.00 0.00 0.00 0.00 0.00 0.00 0.00 0.00 0.00 0.00 0.00 0.00 0.00 0.00 0.00 0.00 0.00 0.00 0.00 0.00 0.01 0.04 0.05 0.05 0.04 0.03 0.01 0.01 0.00
0.32 0.18 0.21 0.30 0.18 0.11 0.11 0.06 0.10 0.13 0.16 0.16 0.08 0.06 0.01 0.00 0.00 0.00 0.00 0.00 0.00 0.00 0.00 0.00 0.00 0.00 0.00 0.00 0.00 0.00 0.00 0.00 0.00 0.00 0.00 0.01 0.04 0.06 0.05 0.03 0.02 0.01 0.00 0.00
0.26 0.21 0.24 0.24 0.17 0.15 0.17 0.22 0.23 0.26 0.34 0.31 0.11 0.08 0.03 0.00 0.00 0.00 0.00 0.00 0.00 0.00 0.00 0.00 0.00 0.00 0.00 0.00 0.00 0.00 0.00 0.00 0.00 0.00 0.00 0.01 0.02 0.04 0.04 0.02 0.01 0.01 0.00 0.00
0.41 0.31 0.26 0.29 0.38 0.36 0.42 0.65 0.73 0.58 0.52 0.28 0.07 0.07 0.03 0.00 0.00 0.00 0.00 0.00 0.00 0.00 0.00 0.00 0.00 0.00 0.00 0.00 0.00 0.00 0.00 0.00 0.00 0.00 0.00 0.00 0.03 0.05 0.05 0.03 0.01 0.01 0.00 0.00
0.47 0.36 0.23 0.34 0.53 0.54 0.49 0.65 0.70 0.45 0.26 0.11 0.05 0.04 0.01 0.00 0.00 0.00 0.00 0.00 0.00 0.00 0.00 0.00 0.00 0.00 0.00 0.00 0.00 0.00 0.00 0.00 0.00 0.00 0.00 0.00 0.01 0.03 0.03 0.02 0.01 0.00 0.00 0.00
0.36 0.30 0.18 0.25 0.40 0.46 0.48 0.51 0.44 0.50 0.32 0.17 0.08 0.03 0.01 0.00 0.00 0.00 0.00 0.00 0.00 0.00 0.00 0.00 0.00 0.00 0.00 0.00 0.00 0.00 0.00 0.00 0.00 0.00 0.00 0.00 0.00 0.01 0.01 0.01 0.00 0.00 0.00 0.00
0.37 0.45 0.27 0.31 0.50 0.58 0.52 0.43 0.51 0.79 0.55 0.27 0.09 0.03 0.01 0.00 0.00 0.00 0.00 0.00 0.00 0.00 0.00 0.00 0.00 0.00 0.00 0.00 0.00 0.00 0.00 0.00 0.00 0.00 0.00 0.00 0.00 0.00 0.01 0.00 0.00 0.00 0.00 0.00
0.39 0.61 0.43 0.47 0.61 0.56 0.56 0.60 0.61 0.59 0.43 0.34 0.17 0.04 0.01 0.01 0.01 0.00 0.00 0.00 0.00 0.00 0.00 0.00 0.00 0.00 0.00 0.00 0.00 0.00 0.00 0.00 0.00 0.00 0.00 0.00 0.00 0.00 0.00 0.00 0.00 0.00 0.00 0.00
0.37 0.69 0.56 0.41 0.37 0.40 0.46 0.45 0.51 0.64 0.47 0.36 0.25 0.07 0.01 0.01 0.01 0.01 0.01 0.01 0.01 0.00 0.00 0.00 0.00 0.00 0.00 0.00 0.00 0.00 0.00 0.00 0.00 0.00 0.00 0.00 0.00 0.00 0.00 0.00 0.00 0.00 0.00 0.00
0.36 0.71 0.73 0.52 0.47 0.53 0.56 0.43 0.43 0.58 0.69 0.55 0.37 0.11 0.02 0.02 0.02 0.02 0.03 0.03 0.02 0.01 0.01 0.00 0.00 0.00 0.00 0.00 0.00 0.00 0.00 0.00 0.00 0.00 0.00 0.00 0.00 0.00 0.00 0.00 0.00 0.00 0.00 0.00
0.54 0.76 0.68 0.49 0.43 0.53 0.51 0.40 0.47 0.81 0.88 0.49 0.25 0.10 0.04 0.03 0.05 0.05 0.05 0.04 0.03 0.03 0.02 0.01 0.00 0.00 0.00 0.00 0.00 0.00 0.00 0.00 0.00 0.00 0.00 0.00 0.00 0.00 0.00 0.00 0.00 0.00 0.00 0.00
0.55 0.78 0.60 0.37 0.29 0.44 0.45 0.43 0.51 0.66 0.58 0.46 0.23 0.13 0.09 0.06 0.08 0.07 0.06 0.04 0.03 0.02 0.02 0.01 0.01 0.00 0.00 0.00 0.00 0.00 0.00 0.00 0.00 0.00 0.00 0.00 0.00 0.00 0.00 0.00 0.00 0.00 0.00 0.00
0.41 0.64 0.63 0.44 0.27 0.37 0.42 0.38 0.38 0.40 0.40 0.35 0.25 0.20 0.10 0.07 0.07 0.07 0.06 0.04 0.03 0.02 0.01 0.01 0.01 0.00 0.00 0.00 0.00 0.00 0.00 0.00 0.00 0.00 0.00 0.00 0.00 0.00 0.00 0.00 0.00 0.00 0.00 0.00
0.29 0.49 0.67 0.48 0.30 0.38 0.42 0.35 0.34 0.33 0.28 0.26 0.25 0.19 0.11 0.10 0.09 0.08 0.06 0.04 0.03 0.02 0.01 0.01 0.01 0.00 0.00 0.00 0.00 0.00 0.00 0.00 0.00 0.00 0.00 0.00 0.00 0.00 0.00 0.00 0.00 0.00 0.00 0.00
0.16 0.37 0.58 0.41 0.32 0.43 0.32 0.25 0.25 0.25 0.22 0.21 0.17 0.11 0.08 0.07 0.06 0.06 0.04 0.03 0.02 0.01 0.01 0.01 0.00 0.00 0.00 0.00 0.00 0.00 0.00 0.00 0.00 0.00 0.00 0.00 0.00 0.00 0.00 0.00 0.00 0.00 0.00 0.00
0.07 0.23 0.40 0.31 0.26 0.22 0.16 0.15 0.17 0.21 0.20 0.15 0.10 0.06 0.04 0.04 0.06 0.05 0.03 0.02 0.02 0.01 0.01 0.00 0.00 0.00 0.00 0.00 0.00 0.00 0.00 0.00 0.00 0.00 0.00 0.00 0.00 0.00 0.00 0.00 0.00 0.00 0.00 0.00
0.04 0.12 0.24 0.20 0.19 0.13 0.07 0.05 0.06 0.12 0.15 0.08 0.07 0.05 0.04 0.04 0.06 0.04 0.02 0.01 0.01 0.01 0.00 0.00 0.00 0.00 0.00 0.00 0.00 0.00 0.00 0.00 0.00 0.00 0.00 0.00 0.00 0.00 0.00 0.00 0.00 0.00 0.00 0.00
0.05 0.09 0.12 0.11 0.10 0.03 0.01 0.01 0.03 0.06 0.06 0.03 0.03 0.03 0.03 0.03 0.02 0.02 0.01 0.00 0.00 0.00 0.00 0.00 0.00 0.00 0.00 0.00 0.00 0.00 0.00 0.00 0.00 0.00 0.00 0.00 0.00 0.00 0.00 0.00 0.00 0.00 0.00 0.00
0.01 0.02 0.03 0.04 0.04 0.01 0.00 0.00 0.01 0.01 0.02 0.02 0.02 0.02 0.02 0.02 0.01 0.01 0.00 0.00 0.00 0.00 0.00 0.00 0.00 0.00 0.00 0.00 0.00 0.00 0.00 0.00 0.00 0.00 0.00 0.00 0.00 0.00 0.00 0.00 0.00 0.00 0.00 0.00
0.00 0.00 0.00 0.00 0.00 0.00 0.00 0.00 0.00 0.00 0.01 0.01 0.02 0.02 0.02 0.01 0.01 0.01 0.00 0.00 0.00 0.00 0.00 0.00 0.00 0.00 0.00 0.00 0.00 0.00 0.00 0.00 0.00 0.00 0.00 0.00 0.00 0.00 0.00 0.00 0.00 0.00 0.00 0.00
0.00 0.00 0.00 0.00 0.00 0.00 0.00 0.00 0.00 0.00 0.00 0.00 0.00 0.00 0.01 0.01 0.02 0.01 0.00 0.00 0.00 0.00 0.00 0.00 0.00 0.00 0.00 0.00 0.00 0.00 0.00 0.00 0.00 0.00 0.00 0.00 0.00 0.00 0.00 0.00 0.00 0.00 0.00 0.00
0.00 0.00 0.00 0.00 0.00 0.00 0.00 0.00 0.00 0.00 0.00 0.00 0.00 0.00 0.00 0.00 0.00 0.00 0.00 0.00 0.00 0.00 0.00 0.00 0.00 0.00 0.00 0.00 0.00 0.00 0.00 0.00 0.00 0.00 0.00 0.00 0.00 0.00 0.00 0.00 0.00 0.00 0.00 0.00
0.00 0.00 0.00 0.00 0.00 0.00 0.00 0.00 0.00 0.00 0.00 0.00 0.00 0.00 0.00 0.00 0.00 0.00 0.00 0.00 0.00 0.00 0.00 0.00 0.00 0.00 0.00 0.00 0.00 0.00 0.00 0.00 0.00 0.00 0.00 0.00 0.00 0.00 0.00 0.00 0.00 0.00 0.00 0.00

GEFSCGP_prec_meanprecacc_042.txt.gz
Total_Precipitation_Accumulation
0.30 0.39 0.29 0.12 0.07 0.03 0.03 0.03 0.02 0.01 0.00 0.01 0.00 0.00 0.00 0.00 0.00 0.00 0.00 0.00 0.00 0.00 0.00 0.00 0.00 0.00 0.00 0.00 0.00 0.00 0.00 0.00 0.00 0.00 0.00 0.02 0.06 0.09 0.12 0.12 0.10 0.08 0.07 0.05
0.39 0.30 0.13 0.07 0.07 0.07 0.06 0.06 0.04 0.02 0.01 0.01 0.01 0.00 0.00 0.00 0.00 0.00 0.00 0.00 0.00 0.00 0.00 0.00 0.00 0.00 0.00 0.00 0.00 0.00 0.00 0.00 0.00 0.00 0.01 0.03 0.07 0.11 0.14 0.13 0.11 0.10 0.09 0.06
0.28 0.14 0.11 0.14 0.13 0.12 0.08 0.06 0.05 0.04 0.02 0.02 0.02 0.01 0.00 0.00 0.00 0.00 0.00 0.00 0.00 0.00 0.00 0.00 0.00 0.00 0.00 0.00 0.00 0.00 0.00 0.00 0.00 0.00 0.01 0.02 0.04 0.06 0.07 0.07 0.08 0.09 0.09 0.07
0.28 0.14 0.18 0.25 0.18 0.13 0.11 0.05 0.06 0.07 0.09 0.07 0.04 0.03 0.00 0.00 0.00 0.00 0.00 0.00 0.00 0.00 0.00 0.00 0.00 0.00 0.00 0.00 0.00 0.00 0.00 0.00 0.00 0.00 0.00 0.01 0.04 0.06 0.06 0.07 0.07 0.07 0.06 0.06
0.32 0.18 0.21 0.30 0.18 0.11 0.11 0.06 0.10 0.13 0.16 0.16 0.08 0.06 0.01 0.00 0.00 0.00 0.00 0.00 0.00 0.00 0.00 0.00 0.00 0.00 0.00 0.00 0.00 0.00 0.00 0.00 0.00 0.00 0.00 0.01 0.04 0.06 0.06 0.05 0.05 0.05 0.04 0.04
0.26 0.21 0.24 0.24 0.17 0.15 0.17 0.22 0.23 0.27 0.34 0.31 0.11 0.08 0.03 0.00 0.00 0.00 0.00 0.00 0.00 0.00 0.00 0.00 0.00 0.00 0.00 0.00 0.00 0.00 0.00 0.00 0.00 0.00 0.00 0.01 0.03 0.04 0.05 0.04 0.03 0.04 0.03 0.03
0.41 0.31 0.26 0.29 0.38 0.36 0.42 0.65 0.73 0.58 0.53 0.28 0.07 0.07 0.03 0.00 0.00 0.00 0.00 0.00 0.00 0.00 0.00 0.00 0.00 0.00 0.00 0.00 0.00 0.00 0.00 0.00 0.00 0.00 0.00 0.00 0.03 0.05 0.06 0.05 0.04 0.04 0.03 0.03
0.48 0.36 0.23 0.34 0.53 0.54 0.50 0.65 0.70 0.45 0.26 0.11 0.05 0.04 0.01 0.00 0.00 0.00 0.00 0.00 0.00 0.00 0.00 0.00 0.00 0.00 0.00 0.00 0.00 0.00 0.00 0.00 0.00 0.00 0.00 0.00 0.01 0.03 0.03 0.04 0.04 0.04 0.04 0.04
0.37 0.30 0.18 0.25 0.40 0.46 0.49 0.52 0.45 0.50 0.32 0.17 0.08 0.03 0.01 0.00 0.00 0.00 0.00 0.00 0.00 0.00 0.00 0.00 0.00 0.00 0.00 0.00 0.00 0.00 0.00 0.00 0.00 0.00 0.00 0.00 0.00 0.01 0.02 0.02 0.02 0.02 0.03 0.03
0.37 0.45 0.27 0.31 0.51 0.58 0.52 0.43 0.52 0.81 0.56 0.27 0.09 0.03 0.01 0.00 0.00 0.00 0.00 0.00 0.00 0.00 0.00 0.00 0.00 0.00 0.00 0.00 0.00 0.00 0.00 0.00 0.00 0.00 0.00 0.00 0.00 0.00 0.01 0.02 0.02 0.02 0.02 0.02
0.40 0.61 0.43 0.47 0.61 0.56 0.56 0.61 0.62 0.61 0.44 0.35 0.17 0.04 0.01 0.01 0.01 0.00 0.00 0.00 0.00 0.00 0.00 0.00 0.00 0.00 0.00 0.00 0.00 0.00 0.00 0.00 0.00 0.00 0.00 0.00 0.00 0.00 0.00 0.01 0.01 0.02 0.02 0.01
0.38 0.70 0.56 0.41 0.37 0.40 0.46 0.45 0.52 0.67 0.49 0.37 0.27 0.08 0.01 0.01 0.01 0.01 0.01 0.01 0.01 0.00 0.00 0.00 0.00 0.00 0.00 0.00 0.00 0.00 0.01 0.00 0.00 0.00 0.00 0.00 0.00 0.00 0.00 0.01 0.01 0.01 0.01 0.01
0.37 0.71 0.74 0.53 0.48 0.53 0.56 0.43 0.43 0.62 0.78 0.61 0.41 0.12 0.02 0.02 0.02 0.02 0.03 0.03 0.02 0.01 0.01 0.01 0.00 0.01 0.01 0.01 0.01 0.01 0.01 0.00 0.00 0.00 0.00 0.00 0.00 0.00 0.01 0.01 0.01 0.01 0.01 0.00
0.54 0.76 0.68 0.50 0.44 0.53 0.51 0.40 0.49 0.92 1.03 0.56 0.27 0.10 0.05 0.04 0.06 0.06 0.06 0.05 0.04 0.03 0.02 0.02 0.01 0.01 0.01 0.01 0.00 0.00 0.00 0.00 0.00 0.00 0.00 0.00 0.01 0.01 0.01 0.01 0.01 0.01 0.00 0.00
0.56 0.79 0.60 0.37 0.29 0.44 0.46 0.44 0.53 0.75 0.70 0.59 0.28 0.14 0.09 0.08 0.10 0.10 0.08 0.06 0.05 0.04 0.03 0.02 0.02 0.01 0.01 0.00 0.00 0.00 0.00 0.00 0.00 0.01 0.01 0.01 0.01 0.01 0.01 0.01 0.00 0.00 0.00 0.00
0.43 0.65 0.64 0.44 0.27 0.37 0.42 0.39 0.41 0.45 0.46 0.43 0.30 0.23 0.12 0.10 0.12 0.11 0.09 0.07 0.06 0.04 0.04 0.03 0.02 0.02 0.01 0.00 0.00 0.00 0.00 0.00 0.01 0.01 0.01 0.01 0.01 0.01 0.01 0.00 0.00 0.00 0.00 0.00
0.30 0.51 0.69 0.49 0.30 0.38 0.43 0.37 0.39 0.37 0.32 0.33 0.33 0.25 0.15 0.15 0.15 0.13 0.10 0.07 0.06 0.03 0.03 0.02 0.02 0.01 0.01 0.00 0.00 0.00 0.01 0.01 0.01 0.01 0.01 0.01 0.01 0.01 0.00 0.00 0.00 0.00 0.00 0.00
0.17 0.39 0.61 0.43 0.33 0.45 0.34 0.27 0.28 0.29 0.27 0.28 0.25 0.18 0.14 0.13 0.15 0.14 0.11 0.07 0.05 0.04 0.02 0.01 0.01 0.01 0.00 0.00 0.01 0.01 0.01 0.01 0.01 0.01 0.01 0.01 0.01 0.01 0.01 0.01 0.01 0.01 0.01 0.01
0.08 0.27 0.45 0.34 0.28 0.23 0.18 0.18 0.20 0.26 0.26 0.23 0.16 0.11 0.09 0.10 0.14 0.15 0.12 0.08 0.05 0.03 0.04 0.03 0.03 0.02 0.01 0.02 0.02 0.02 0.02 0.02 0.02 0.03 0.03 0.02 0.02 0.02 0.02 0.02 0.01 0.01 0.01 0.01
0.05 0.15 0.31 0.25 0.23 0.14 0.09 0.06 0.08 0.15 0.21 0.14 0.13 0.12 0.11 0.13 0.15 0.14 0.11 0.08 0.08 0.06 0.05 0.05 0.06 0.06 0.07 0.06 0.06 0.06 0.05 0.06 0.05 0.05 0.04 0.04 0.04 0.03 0.02 0.01 0.01 0.00 0.00 0.00
0.07 0.12 0.16 0.16 0.14 0.04 0.02 0.02 0.03 0.08 0.10 0.05 0.05 0.07 0.09 0.09 0.08 0.09 0.07 0.06 0.07 0.08 0.08 0.07 0.07 0.08 0.09 0.08 0.08 0.07 0.07 0.06 0.06 0.05 0.04 0.02 0.02 0.01 0.01 0.00 0.00 0.00 0.00 0.00
0.02 0.04 0.04 0.05 0.06 0.02 0.00 0.01 0.02 0.02 0.02 0.03 0.04 0.06 0.07 0.07 0.06 0.06 0.06 0.06 0.05 0.04 0.05 0.06 0.06 0.08 0.08 0.09 0.09 0.08 0.07 0.05 0.04 0.03 0.01 0.01 0.00 0.00 0.00 0.00 0.00 0.00 0.00 0.00
0.01 0.01 0.01 0.01 0.01 0.00 0.00 0.00 0.00 0.00 0.01 0.02 0.04 0.05 0.06 0.05 0.05 0.05 0.04 0.03 0.03 0.03 0.03 0.04 0.05 0.05 0.06 0.06 0.07 0.05 0.03 0.02 0.01 0.01 0.01 0.00 0.00 0.00 0.00 0.00 0.00 0.00 0.00 0.00
0.01 0.00 0.00 0.00 0.00 0.00 0.00 0.00 0.00 0.00 0.00 0.00 0.01 0.02 0.05 0.06 0.06 0.06 0.03 0.02 0.02 0.01 0.01 0.02 0.02 0.02 0.02 0.02 0.02 0.01 0.00 0.00 0.00 0.00 0.00 0.00 0.00 0.00 0.00 0.00 0.00 0.00 0.00 0.00
0.01 0.00 0.00 0.00 0.00 0.00 0.00 0.00 0.00 0.00 0.00 0.00 0.00 0.00 0.01 0.02 0.02 0.03 0.03 0.02 0.02 0.01 0.01 0.01 0.00 0.00 0.00 0.00 0.00 0.00 0.00 0.00 0.00 0.00 0.00 0.00 0.00 0.00 0.00 0.00 0.00 0.00 0.00 0.00
0.00 0.00 0.00 0.00 0.00 0.00 0.00 0.00 0.00 0.00 0.00 0.00 0.00 0.00 0.00 0.00 0.00 0.00 0.01 0.00 0.00 0.00 0.00 0.00 0.00 0.00 0.00 0.00 0.00 0.00 0.00 0.00 0.00 0.00 0.00 0.00 0.00 0.00 0.00 0.00 0.00 0.00 0.00 0.00

GEFSCGP_prec_meanprecacc_048.txt.gz
Total_Precipitation_Accumulation
0.35 0.45 0.32 0.13 0.07 0.03 0.03 0.03 0.02 0.01 0.00 0.01 0.00 0.00 0.00 0.00 0.00 0.00 0.00 0.00 0.00 0.00 0.00 0.00 0.00 0.00 0.00 0.00 0.00 0.00 0.00 0.00 0.03 0.05 0.05 0.06 0.09 0.13 0.15 0.15 0.12 0.11 0.09 0.06
0.42 0.33 0.15 0.08 0.08 0.07 0.06 0.06 0.04 0.02 0.01 0.01 0.01 0.00 0.00 0.00 0.00 0.00 0.00 0.00 0.00 0.00 0.00 0.00 0.00 0.00 0.00 0.00 0.00 0.00 0.00 0.00 0.01 0.02 0.03 0.08 0.15 0.19 0.23 0.21 0.17 0.16 0.13 0.09
0.30 0.16 0.12 0.15 0.13 0.12 0.09 0.07 0.05 0.04 0.02 0.02 0.02 0.01 0.00 0.00 0.00 0.00 0.00 0.00 0.00 0.00 0.00 0.00 0.00 0.00 0.00 0.00 0.00 0.00 0.00 0.00 0.01 0.03 0.05 0.09 0.12 0.15 0.15 0.12 0.13 0.15 0.16 0.14
0.29 0.15 0.18 0.26 0.19 0.14 0.11 0.05 0.06 0.07 0.09 0.07 0.04 0.03 0.00 0.00 0.00 0.00 0.00 0.00 0.00 0.00 0.00 0.00 0.00 0.00 0.00 0.00 0.00 0.00 0.00 0.00 0.00 0.01 0.03 0.04 0.06 0.08 0.09 0.12 0.15 0.17 0.16 0.15
0.33 0.18 0.21 0.31 0.18 0.12 0.11 0.06 0.10 0.13 0.16 0.16 0.08 0.06 0.01 0.00 0.00 0.00 0.00 0.00 0.00 0.00 0.00 0.00 0.00 0.00 0.00 0.00 0.00 0.00 0.00 0.00 0.00 0.00 0.01 0.03 0.06 0.08 0.09 0.10 0.12 0.13 0.12 0.13
0.26 0.21 0.24 0.24 0.17 0.15 0.17 0.22 0.23 0.27 0.34 0.31 0.11 0.08 0.03 0.00 0.00 0.00 0.00 0.00 0.00 0.00 0.00 0.00 0.00 0.00 0.00 0.00 0.00 0.00 0.00 0.00 0.00 0.00 0.00 0.02 0.04 0.06 0.06 0.07 0.08 0.09 0.10 0.09
0.41 0.31 0.26 0.29 0.38 0.36 0.42 0.65 0.73 0.59 0.53 0.28 0.07 0.07 0.03 0.00 0.00 0.00 0.00 0.00 0.00 0.00 0.00 0.00 0.00 0.00 0.00 0.00 0.00 0.00 0.00 0.00 0.00 0.00 0.01 0.01 0.03 0.06 0.08 0.08 0.08 0.08 0.08 0.07
0.48 0.37 0.23 0.34 0.53 0.54 0.50 0.65 0.70 0.45 0.26 0.11 0.05 0.04 0.01 0.00 0.00 0.00 0.00 0.00 0.00 0.00 0.00 0.00 0.00 0.00 0.00 0.00 0.00 0.00 0.00 0.00 0.00 0.01 0.01 0.01 0.02 0.04 0.06 0.07 0.07 0.07 0.07 0.08
0.37 0.30 0.18 0.25 0.40 0.46 0.49 0.52 0.45 0.50 0.32 0.17 0.08 0.03 0.01 0.00 0.00 0.00 0.00 0.00 0.00 0.00 0.00 0.00 0.00 0.00 0.00 0.00 0.00 0.00 0.00 0.01 0.01 0.01 0.01 0.01 0.02 0.03 0.04 0.05 0.05 0.05 0.06 0.06
0.37 0.45 0.27 0.31 0.51 0.58 0.52 0.43 0.52 0.81 0.56 0.27 0.09 0.03 0.01 0.00 0.00 0.00 0.00 0.00 0.00 0.00 0.00 0.00 0.00 0.00 0.00 0.00 0.00 0.00 0.00 0.01 0.01 0.02 0.02 0.02 0.02 0.03 0.04 0.04 0.03 0.03 0.04 0.04
0.40 0.62 0.44 0.47 0.61 0.56 0.56 0.61 0.62 0.61 0.44 0.35 0.17 0.04 0.01 0.01 0.01 0.00 0.00 0.00 0.00 0.00 0.00 0.00 0.00 0.00 0.00 0.00 0.00 0.00 0.01 0.01 0.01 0.01 0.01 0.02 0.02 0.02 0.02 0.03 0.03 0.03 0.03 0.03
0.38 0.70 0.56 0.41 0.37 0.40 0.46 0.45 0.52 0.67 0.49 0.38 0.27 0.08 0.01 0.01 0.01 0.01 0.01 0.01 0.01 0.00 0.00 0.00 0.00 0.00 0.00 0.01 0.01 0.01 0.02 0.02 0.02 0.01 0.01 0.02 0.02 0.02 0.02 0.03 0.03 0.03 0.03 0.03
0.37 0.71 0.74 0.53 0.48 0.53 0.56 0.43 0.43 0.63 0.79 0.61 0.41 0.12 0.02 0.02 0.02 0.02 0.03 0.03 0.03 0.02 0.01 0.01 0.01 0.01 0.01 0.02 0.02 0.02 0.02 0.02 0.02 0.02 0.02 0.02 0.02 0.02 0.03 0.03 0.03 0.03 0.02 0.02
0.55 0.76 0.68 0.50 0.45 0.53 0.51 0.40 0.49 0.93 1.06 0.57 0.27 0.10 0.05 0.04 0.06 0.07 0.07 0.06 0.05 0.04 0.04 0.03 0.02 0.02 0.02 0.02 0.01 0.02 0.02 0.02 0.02 0.02 0.03 0.03 0.03 0.04 0.04 0.04 0.03 0.03 0.02 0.02
0.56 0.79 0.60 0.37 0.29 0.44 0.46 0.44 0.53 0.75 0.70 0.61 0.29 0.14 0.10 0.09 0.12 0.12 0.10 0.07 0.07 0.06 0.05 0.05 0.04 0.04 0.03 0.02 0.02 0.01 0.01 0.01 0.02 0.03 0.03 0.03 0.04 0.04 0.04 0.03 0.03 0.02 0.02 0.02
0.43 0.65 0.64 0.44 0.27 0.37 0.42 0.39 0.41 0.45 0.47 0.44 0.31 0.24 0.13 0.12 0.14 0.13 0.10 0.08 0.08 0.06 0.06 0.05 0.04 0.04 0.04 0.03 0.02 0.03 0.02 0.02 0.02 0.03 0.03 0.03 0.03 0.03 0.03 0.02 0.02 0.02 0.03 0.03
0.30 0.51 0.69 0.49 0.30 0.38 0.43 0.37 0.39 0.37 0.33 0.34 0.35 0.27 0.17 0.17 0.17 0.14 0.11 0.09 0.08 0.05 0.04 0.03 0.03 0.03 0.03 0.02 0.02 0.02 0.02 0.03 0.03 0.03 0.03 0.03 0.03 0.03 0.03 0.03 0.04 0.05 0.05 0.06
0.17 0.39 0.62 0.43 0.33 0.45 0.34 0.27 0.28 0.30 0.27 0.29 0.27 0.20 0.15 0.15 0.17 0.16 0.12 0.08 0.06 0.04 0.03 0.02 0.01 0.02 0.02 0.02 0.02 0.02 0.02 0.03 0.02 0.02 0.03 0.04 0.04 0.06 0.07 0.09 0.10 0.11 0.11 0.11
0.08 0.28 0.47 0.36 0.29 0.23 0.18 0.18 0.21 0.27 0.27 0.24 0.17 0.12 0.10 0.11 0.16 0.16 0.13 0.09 0.06 0.04 0.04 0.04 0.03 0.03 0.02 0.02 0.03 0.03 0.04 0.05 0.05 0.05 0.07 0.10 0.12 0.14 0.15 0.16 0.16 0.15 0.14 0.12
0.06 0.17 0.34 0.27 0.25 0.14 0.09 0.06 0.08 0.16 0.22 0.15 0.13 0.12 0.12 0.13 0.16 0.14 0.12 0.10 0.10 0.08 0.06 0.06 0.07 0.08 0.08 0.09 0.10 0.10 0.11 0.13 0.15 0.15 0.16 0.19 0.22 0.24 0.23 0.20 0.17 0.14 0.11 0.08
0.09 0.15 0.20 0.19 0.17 0.04 0.02 0.03 0.04 0.10 0.11 0.05 0.06 0.08 0.10 0.09 0.09 0.10 0.08 0.08 0.10 0.11 0.11 0.11 0.11 0.13 0.15 0.14 0.16 0.16 0.16 0.21 0.26 0.28 0.28 0.26 0.25 0.23 0.20 0.16 0.12 0.09 0.06 0.04
0.03 0.04 0.05 0.07 0.07 0.03 0.01 0.01 0.02 0.03 0.03 0.04 0.05 0.06 0.08 0.08 0.07 0.07 0.09 0.09 0.08 0.07 0.09 0.11 0.13 0.15 0.17 0.20 0.23 0.24 0.25 0.27 0.27 0.26 0.24 0.22 0.18 0.15 0.13 0.10 0.07 0.05 0.03 0.01
0.01 0.01 0.01 0.01 0.01 0.00 0.00 0.00 0.00 0.00 0.01 0.02 0.04 0.05 0.06 0.06 0.07 0.06 0.05 0.05 0.06 0.06 0.08 0.10 0.14 0.16 0.18 0.20 0.23 0.25 0.24 0.22 0.21 0.20 0.18 0.14 0.11 0.09 0.06 0.04 0.02 0.01 0.01 0.00
0.04 0.02 0.01 0.01 0.00 0.00 0.00 0.00 0.00 0.00 0.00 0.00 0.01 0.02 0.05 0.07 0.07 0.06 0.03 0.03 0.03 0.03 0.04 0.06 0.08 0.09 0.10 0.11 0.13 0.14 0.12 0.11 0.11 0.10 0.09 0.07 0.04 0.03 0.01 0.01 0.00 0.00 0.00 0.00
0.04 0.03 0.02 0.01 0.00 0.00 0.00 0.00 0.00 0.00 0.00 0.00 0.00 0.00 0.01 0.02 0.03 0.04 0.03 0.03 0.02 0.02 0.02 0.03 0.03 0.03 0.04 0.05 0.05 0.05 0.04 0.03 0.03 0.02 0.02 0.01 0.01 0.00 0.00 0.00 0.00 0.00 0.00 0.00
0.00 0.00 0.01 0.01 0.00 0.00 0.00 0.00 0.00 0.00 0.00 0.00 0.00 0.00 0.00 0.00 0.01 0.01 0.01 0.01 0.00 0.01 0.01 0.01 0.01 0.01 0.01 0.01 0.01 0.01 0.01 0.01 0.00 0.00 0.00 0.00 0.00 0.00 0.00 0.00 0.00 0.00 0.00 0.00

GEFSCGP_prec_meanprecacc_054.txt.gz
Total_Precipitation_Accumulation
0.44 0.53 0.37 0.16 0.09 0.03 0.03 0.03 0.02 0.01 0.00 0.01 0.00 0.00 0.00 0.00 0.00 0.00 0.00 0.00 0.00 0.00 0.00 0.00 0.00 0.00 0.00 0.00 0.00 0.00 0.00 0.01 0.04 0.07 0.08 0.08 0.11 0.14 0.17 0.18 0.17 0.15 0.11 0.08
0.49 0.40 0.18 0.10 0.10 0.08 0.06 0.06 0.04 0.02 0.01 0.01 0.01 0.00 0.00 0.00 0.00 0.00 0.00 0.00 0.00 0.00 0.00 0.00 0.00 0.00 0.00 0.00 0.00 0.00 0.00 0.00 0.01 0.02 0.04 0.09 0.17 0.22 0.27 0.26 0.24 0.21 0.18 0.14
0.35 0.20 0.16 0.19 0.17 0.15 0.10 0.07 0.05 0.04 0.02 0.02 0.02 0.01 0.00 0.00 0.00 0.00 0.00 0.00 0.00 0.00 0.00 0.00 0.00 0.00 0.00 0.00 0.00 0.00 0.00 0.00 0.01 0.03 0.08 0.12 0.17 0.19 0.19 0.15 0.15 0.19 0.23 0.23
0.32 0.18 0.23 0.30 0.22 0.16 0.13 0.05 0.06 0.07 0.09 0.07 0.04 0.03 0.00 0.00 0.00 0.00 0.00 0.00 0.00 0.00 0.00 0.00 0.00 0.00 0.00 0.00 0.00 0.00 0.00 0.00 0.00 0.01 0.04 0.06 0.08 0.10 0.10 0.14 0.17 0.22 0.23 0.25
0.36 0.21 0.25 0.35 0.21 0.14 0.13 0.07 0.10 0.14 0.16 0.16 0.08 0.06 0.01 0.00 0.00 0.00 0.00 0.00 0.00 0.00 0.00 0.00 0.00 0.00 0.00 0.00 0.00 0.00 0.00 0.00 0.00 0.00 0.01 0.04 0.07 0.09 0.11 0.13 0.16 0.18 0.18 0.20
0.28 0.23 0.26 0.27 0.19 0.16 0.18 0.22 0.23 0.27 0.34 0.31 0.11 0.08 0.03 0.00 0.00 0.00 0.00 0.00 0.00 0.00 0.00 0.00 0.00 0.00 0.00 0.00 0.00 0.00 0.00 0.00 0.00 0.00 0.00 0.02 0.04 0.07 0.08 0.08 0.11 0.14 0.15 0.15
0.44 0.32 0.26 0.30 0.39 0.37 0.43 0.65 0.73 0.59 0.53 0.28 0.07 0.07 0.03 0.00 0.00 0.00 0.00 0.00 0.00 0.00 0.00 0.00 0.00 0.00 0.00 0.00 0.00 0.00 0.00 0.00 0.00 0.00 0.01 0.01 0.04 0.07 0.09 0.10 0.11 0.12 0.12 0.11
0.50 0.38 0.24 0.35 0.53 0.55 0.50 0.65 0.70 0.45 0.26 0.11 0.05 0.04 0.01 0.00 0.00 0.00 0.00 0.00 0.00 0.00 0.00 0.00 0.00 0.00 0.00 0.00 0.00 0.00 0.00 0.00 0.00 0.01 0.01 0.01 0.03 0.05 0.06 0.08 0.09 0.10 0.11 0.13
0.37 0.31 0.18 0.26 0.40 0.46 0.49 0.52 0.45 0.50 0.32 0.17 0.08 0.03 0.01 0.00 0.00 0.00 0.00 0.00 0.00 0.00 0.00 0.00 0.00 0.00 0.00 0.00 0.00 0.00 0.00 0.01 0.01 0.01 0.01 0.01 0.02 0.03 0.05 0.06 0.07 0.07 0.09 0.11
0.37 0.45 0.27 0.31 0.51 0.58 0.52 0.43 0.52 0.81 0.56 0.27 0.09 0.03 0.01 0.00 0.00 0.00 0.00 0.00 0.00 0.00 0.00 0.00 0.00 0.00 0.00 0.00 0.00 0.00 0.00 0.01 0.01 0.02 0.02 0.02 0.02 0.03 0.04 0.05 0.05 0.06 0.07 0.08
0.40 0.62 0.44 0.47 0.61 0.56 0.56 0.61 0.62 0.61 0.44 0.35 0.17 0.04 0.01 0.01 0.01 0.00 0.00 0.00 0.00 0.00 0.00 0.00 0.00 0.00 0.00 0.00 0.00 0.00 0.01 0.01 0.01 0.01 0.01 0.02 0.02 0.03 0.03 0.04 0.05 0.05 0.06 0.06
0.38 0.70 0.57 0.41 0.37 0.40 0.46 0.45 0.52 0.67 0.49 0.38 0.27 0.08 0.01 0.01 0.01 0.01 0.01 0.01 0.01 0.00 0.00 0.00 0.00 0.00 0.00 0.01 0.01 0.01 0.02 0.02 0.02 0.01 0.01 0.02 0.02 0.02 0.03 0.04 0.05 0.05 0.05 0.05
0.37 0.71 0.74 0.53 0.48 0.53 0.56 0.43 0.43 0.63 0.80 0.61 0.41 0.12 0.02 0.02 0.02 0.02 0.03 0.03 0.03 0.02 0.01 0.01 0.01 0.01 0.01 0.02 0.02 0.02 0.02 0.02 0.02 0.02 0.03 0.03 0.03 0.03 0.04 0.05 0.05 0.05 0.04 0.04
0.55 0.76 0.68 0.50 0.45 0.53 0.51 0.40 0.49 0.93 1.06 0.57 0.27 0.10 0.05 0.04 0.06 0.07 0.07 0.06 0.05 0.04 0.04 0.03 0.02 0.02 0.02 0.02 0.02 0.02 0.02 0.02 0.02 0.03 0.04 0.04 0.05 0.06 0.06 0.06 0.05 0.04 0.04 0.03
0.56 0.79 0.60 0.37 0.29 0.44 0.46 0.44 0.53 0.75 0.70 0.61 0.29 0.14 0.10 0.09 0.12 0.12 0.10 0.08 0.07 0.06 0.05 0.05 0.04 0.04 0.04 0.03 0.03 0.02 0.02 0.02 0.03 0.04 0.05 0.06 0.06 0.06 0.06 0.05 0.05 0.04 0.03 0.03
0.43 0.66 0.64 0.44 0.27 0.37 0.42 0.39 0.41 0.45 0.47 0.44 0.31 0.24 0.13 0.12 0.14 0.13 0.10 0.09 0.08 0.06 0.06 0.05 0.04 0.04 0.04 0.04 0.05 0.05 0.04 0.04 0.04 0.05 0.06 0.06 0.06 0.06 0.06 0.05 0.04 0.04 0.05 0.05
0.30 0.51 0.69 0.49 0.30 0.38 0.43 0.37 0.39 0.37 0.33 0.34 0.36 0.27 0.17 0.17 0.17 0.15 0.11 0.09 0.08 0.05 0.04 0.03 0.03 0.04 0.03 0.03 0.03 0.03 0.04 0.05 0.05 0.06 0.07 0.06 0.06 0.06 0.06 0.07 0.09 0.10 0.10 0.11
0.17 0.39 0.62 0.43 0.33 0.45 0.34 0.27 0.28 0.30 0.27 0.29 0.27 0.20 0.15 0.15 0.17 0.16 0.12 0.08 0.06 0.04 0.03 0.02 0.01 0.02 0.02 0.02 0.02 0.02 0.02 0.04 0.05 0.06 0.08 0.09 0.09 0.12 0.14 0.15 0.18 0.21 0.22 0.23
0.08 0.28 0.47 0.36 0.29 0.23 0.18 0.18 0.21 0.27 0.27 0.24 0.17 0.12 0.10 0.11 0.16 0.16 0.13 0.09 0.06 0.04 0.04 0.04 0.03 0.03 0.02 0.02 0.03 0.04 0.05 0.06 0.06 0.08 0.10 0.13 0.15 0.20 0.24 0.25 0.26 0.29 0.31 0.32
0.07 0.17 0.35 0.29 0.25 0.15 0.09 0.06 0.08 0.17 0.24 0.15 0.13 0.12 0.12 0.14 0.16 0.14 0.12 0.10 0.10 0.08 0.06 0.06 0.07 0.08 0.08 0.09 0.10 0.10 0.11 0.15 0.17 0.18 0.21 0.25 0.29 0.34 0.36 0.35 0.33 0.31 0.28 0.25
0.10 0.17 0.23 0.21 0.18 0.04 0.02 0.03 0.04 0.12 0.14 0.05 0.06 0.08 0.10 0.10 0.09 0.11 0.09 0.08 0.10 0.11 0.11 0.11 0.11 0.13 0.15 0.15 0.16 0.17 0.18 0.24 0.29 0.32 0.34 0.34 0.36 0.36 0.36 0.32 0.28 0.24 0.18 0.13
0.03 0.05 0.06 0.07 0.08 0.03 0.02 0.02 0.03 0.04 0.03 0.04 0.05 0.06 0.08 0.08 0.07 0.08 0.09 0.09 0.08 0.07 0.09 0.11 0.13 0.15 0.17 0.20 0.24 0.25 0.27 0.31 0.31 0.32 0.32 0.30 0.28 0.26 0.24 0.21 0.16 0.12 0.08 0.05
0.02 0.01 0.01 0.01 0.01 0.01 0.01 0.01 0.01 0.00 0.02 0.02 0.04 0.05 0.06 0.06 0.07 0.06 0.05 0.05 0.06 0.06 0.08 0.10 0.14 0.17 0.19 0.21 0.24 0.26 0.26 0.25 0.25 0.24 0.23 0.19 0.16 0.13 0.11 0.09 0.06 0.05 0.03 0.02
0.06 0.03 0.02 0.02 0.00 0.00 0.00 0.00 0.00 0.00 0.00 0.00 0.01 0.02 0.05 0.07 0.07 0.06 0.04 0.03 0.03 0.03 0.05 0.06 0.08 0.10 0.11 0.12 0.14 0.16 0.14 0.13 0.12 0.12 0.11 0.09 0.06 0.04 0.03 0.02 0.01 0.01 0.00 0.00
0.07 0.05 0.03 0.02 0.01 0.00 0.00 0.00 0.00 0.00 0.00 0.00 0.00 0.00 0.01 0.02 0.03 0.04 0.03 0.03 0.02 0.02 0.02 0.03 0.03 0.04 0.05 0.05 0.06 0.06 0.05 0.04 0.04 0.03 0.03 0.02 0.01 0.01 0.00 0.00 0.00 0.00 0.00 0.00
0.00 0.01 0.02 0.02 0.01 0.01 0.00 0.00 0.00 0.00 0.00 0.00 0.00 0.00 0.00 0.00 0.01 0.01 0.01 0.01 0.01 0.01 0.01 0.01 0.01 0.01 0.01 0.01 0.01 0.01 0.01 0.01 0.01 0.00 0.00 0.00 0.00 0.00 0.00 0.00 0.00 0.00 0.00 0.00

GEFSCGP_prec_meanprecacc_060.txt.gz
Total_Precipitation_Accumulation
0.69 0.71 0.51 0.23 0.11 0.03 0.03 0.03 0.02 0.01 0.00 0.01 0.00 0.00 0.00 0.00 0.00 0.00 0.00 0.00 0.00 0.00 0.00 0.00 0.00 0.00 0.00 0.00 0.00 0.00 0.00 0.01 0.04 0.08 0.08 0.09 0.11 0.15 0.18 0.18 0.18 0.17 0.14 0.11
0.70 0.53 0.26 0.17 0.14 0.10 0.07 0.06 0.04 0.02 0.01 0.01 0.01 0.00 0.00 0.00 0.00 0.00 0.00 0.00 0.00 0.00 0.00 0.00 0.00 0.00 0.00 0.00 0.00 0.00 0.00 0.00 0.01 0.02 0.04 0.09 0.17 0.22 0.27 0.27 0.25 0.22 0.19 0.16
0.50 0.30 0.23 0.26 0.24 0.19 0.12 0.08 0.05 0.04 0.02 0.02 0.02 0.01 0.00 0.00 0.00 0.00 0.00 0.00 0.00 0.00 0.00 0.00 0.00 0.00 0.00 0.00 0.00 0.00 0.00 0.00 0.01 0.03 0.08 0.13 0.18 0.19 0.20 0.16 0.15 0.19 0.24 0.25
0.46 0.27 0.30 0.37 0.29 0.21 0.16 0.07 0.07 0.08 0.09 0.07 0.04 0.03 0.00 0.00 0.00 0.00 0.00 0.00 0.00 0.00 0.00 0.00 0.00 0.00 0.00 0.00 0.00 0.00 0.00 0.00 0.00 0.01 0.04 0.06 0.08 0.10 0.10 0.14 0.18 0.22 0.25 0.27
0.48 0.31 0.33 0.43 0.27 0.18 0.15 0.08 0.12 0.15 0.16 0.16 0.08 0.06 0.01 0.00 0.00 0.00 0.00 0.00 0.00 0.00 0.00 0.00 0.00 0.00 0.00 0.00 0.00 0.00 0.00 0.00 0.00 0.00 0.01 0.04 0.07 0.09 0.11 0.13 0.16 0.18 0.19 0.21
0.35 0.31 0.34 0.33 0.24 0.20 0.21 0.24 0.25 0.28 0.34 0.32 0.11 0.08 0.03 0.00 0.00 0.00 0.00 0.00 0.00 0.00 0.00 0.00 0.00 0.00 0.00 0.00 0.00 0.00 0.00 0.00 0.00 0.00 0.00 0.02 0.04 0.07 0.08 0.09 0.11 0.14 0.16 0.16
0.50 0.37 0.32 0.34 0.45 0.41 0.46 0.67 0.74 0.59 0.53 0.28 0.07 0.07 0.03 0.00 0.00 0.00 0.00 0.00 0.00 0.00 0.00 0.00 0.00 0.00 0.00 0.00 0.00 0.00 0.00 0.00 0.00 0.00 0.01 0.01 0.04 0.07 0.09 0.10 0.11 0.13 0.12 0.12
0.55 0.44 0.27 0.39 0.58 0.58 0.52 0.67 0.70 0.45 0.26 0.11 0.05 0.04 0.01 0.00 0.00 0.00 0.00 0.00 0.00 0.00 0.00 0.00 0.00 0.00 0.00 0.00 0.00 0.00 0.00 0.00 0.00 0.01 0.01 0.01 0.03 0.05 0.06 0.08 0.09 0.10 0.11 0.14
0.39 0.34 0.20 0.28 0.42 0.48 0.50 0.53 0.45 0.50 0.32 0.17 0.08 0.03 0.01 0.00 0.00 0.00 0.00 0.00 0.00 0.00 0.00 0.00 0.00 0.00 0.00 0.00 0.00 0.00 0.00 0.01 0.01 0.01 0.01 0.01 0.02 0.03 0.05 0.06 0.07 0.08 0.10 0.11
0.38 0.47 0.29 0.32 0.51 0.59 0.52 0.43 0.52 0.81 0.56 0.27 0.09 0.03 0.01 0.00 0.00 0.00 0.00 0.00 0.00 0.00 0.00 0.00 0.00 0.00 0.00 0.00 0.00 0.00 0.00 0.01 0.01 0.02 0.02 0.02 0.02 0.03 0.04 0.05 0.05 0.06 0.07 0.08
0.40 0.62 0.45 0.48 0.62 0.56 0.56 0.61 0.62 0.61 0.44 0.35 0.17 0.04 0.01 0.01 0.01 0.00 0.00 0.00 0.00 0.00 0.00 0.00 0.00 0.00 0.00 0.00 0.00 0.00 0.01 0.01 0.01 0.01 0.01 0.02 0.02 0.03 0.03 0.04 0.05 0.05 0.06 0.06
0.38 0.70 0.57 0.42 0.38 0.40 0.46 0.45 0.52 0.67 0.49 0.38 0.27 0.08 0.01 0.01 0.01 0.01 0.01 0.01 0.01 0.00 0.00 0.00 0.00 0.00 0.00 0.01 0.01 0.01 0.02 0.02 0.02 0.01 0.01 0.02 0.02 0.02 0.03 0.04 0.05 0.05 0.05 0.05
0.37 0.71 0.74 0.53 0.48 0.53 0.56 0.43 0.43 0.63 0.80 0.61 0.41 0.12 0.02 0.02 0.02 0.02 0.03 0.03 0.03 0.02 0.01 0.01 0.01 0.01 0.01 0.02 0.02 0.02 0.02 0.02 0.02 0.02 0.03 0.03 0.03 0.03 0.04 0.06 0.06 0.05 0.05 0.05
0.55 0.76 0.68 0.50 0.45 0.53 0.51 0.40 0.49 0.93 1.06 0.57 0.27 0.10 0.05 0.04 0.06 0.07 0.07 0.06 0.05 0.04 0.04 0.03 0.02 0.02 0.02 0.02 0.02 0.02 0.02 0.02 0.03 0.03 0.04 0.04 0.05 0.06 0.06 0.06 0.06 0.06 0.05 0.06
0.56 0.79 0.60 0.37 0.29 0.44 0.46 0.44 0.53 0.75 0.70 0.61 0.29 0.14 0.10 0.09 0.12 0.12 0.10 0.08 0.07 0.06 0.05 0.05 0.04 0.04 0.04 0.03 0.03 0.02 0.02 0.02 0.03 0.04 0.05 0.06 0.07 0.06 0.07 0.06 0.06 0.06 0.05 0.06
0.43 0.66 0.64 0.44 0.27 0.37 0.42 0.39 0.41 0.45 0.47 0.44 0.31 0.24 0.13 0.12 0.14 0.13 0.10 0.09 0.08 0.06 0.06 0.05 0.04 0.04 0.04 0.04 0.05 0.05 0.04 0.04 0.04 0.06 0.07 0.07 0.07 0.07 0.07 0.07 0.08 0.08 0.09 0.09
0.30 0.51 0.69 0.49 0.30 0.38 0.43 0.37 0.39 0.37 0.33 0.34 0.36 0.27 0.17 0.17 0.17 0.15 0.11 0.09 0.08 0.05 0.04 0.03 0.03 0.04 0.03 0.03 0.03 0.03 0.04 0.05 0.05 0.06 0.08 0.07 0.08 0.08 0.08 0.10 0.14 0.17 0.19 0.20
0.17 0.40 0.62 0.43 0.33 0.45 0.34 0.27 0.28 0.30 0.27 0.29 0.27 0.20 0.15 0.15 0.17 0.16 0.12 0.08 0.06 0.04 0.03 0.02 0.02 0.02 0.02 0.02 0.02 0.02 0.02 0.04 0.05 0.07 0.10 0.12 0.13 0.17 0.20 0.20 0.24 0.30 0.33 0.34
0.08 0.28 0.47 0.37 0.29 0.23 0.18 0.18 0.21 0.27 0.27 0.24 0.17 0.12 0.10 0.11 0.16 0.16 0.13 0.09 0.06 0.04 0.04 0.04 0.03 0.03 0.02 0.03 0.03 0.04 0.05 0.06 0.06 0.08 0.11 0.14 0.17 0.24 0.29 0.31 0.34 0.37 0.41 0.43
0.07 0.17 0.36 0.30 0.26 0.15 0.09 0.06 0.08 0.17 0.24 0.16 0.14 0.12 0.12 0.14 0.16 0.14 0.12 0.10 0.10 0.08 0.06 0.06 0.07 0.08 0.08 0.09 0.10 0.10 0.11 0.15 0.17 0.18 0.22 0.26 0.31 0.37 0.40 0.39 0.39 0.37 0.35 0.33
0.11 0.18 0.24 0.22 0.18 0.04 0.02 0.03 0.04 0.13 0.16 0.06 0.06 0.08 0.10 0.10 0.09 0.11 0.09 0.08 0.10 0.11 0.11 0.11 0.11 0.13 0.15 0.15 0.16 0.17 0.18 0.24 0.30 0.33 0.35 0.35 0.37 0.38 0.38 0.35 0.32 0.28 0.23 0.18
0.04 0.06 0.06 0.08 0.09 0.03 0.02 0.02 0.03 0.05 0.04 0.04 0.05 0.06 0.08 0.08 0.07 0.08 0.09 0.09 0.08 0.07 0.09 0.11 0.13 0.15 0.17 0.20 0.24 0.25 0.27 0.31 0.32 0.32 0.32 0.31 0.30 0.27 0.26 0.23 0.19 0.15 0.11 0.08
0.02 0.01 0.01 0.01 0.01 0.01 0.01 0.02 0.01 0.01 0.02 0.02 0.04 0.05 0.06 0.06 0.07 0.06 0.05 0.05 0.06 0.06 0.08 0.10 0.14 0.17 0.19 0.21 0.24 0.26 0.26 0.25 0.25 0.24 0.23 0.20 0.16 0.14 0.12 0.10 0.08 0.06 0.05 0.03
0.06 0.04 0.03 0.02 0.01 0.00 0.01 0.01 0.01 0.01 0.01 0.01 0.01 0.02 0.05 0.07 0.07 0.06 0.04 0.03 0.03 0.03 0.05 0.06 0.08 0.10 0.11 0.12 0.15 0.16 0.14 0.13 0.13 0.12 0.12 0.09 0.06 0.04 0.03 0.02 0.02 0.01 0.01 0.00
0.07 0.06 0.04 0.02 0.01 0.01 0.01 0.01 0.01 0.01 0.00 0.00 0.00 0.00 0.01 0.02 0.03 0.04 0.03 0.03 0.02 0.02 0.02 0.03 0.03 0.04 0.05 0.05 0.06 0.06 0.05 0.04 0.04 0.03 0.03 0.02 0.02 0.01 0.01 0.00 0.00 0.00 0.00 0.00
0.00 0.01 0.02 0.02 0.02 0.02 0.02 0.01 0.00 0.00 0.00 0.00 0.00 0.00 0.00 0.00 0.01 0.01 0.01 0.01 0.01 0.01 0.01 0.01 0.01 0.01 0.01 0.01 0.01 0.01 0.01 0.01 0.01 0.00 0.00 0.00 0.00 0.00 0.00 0.00 0.00 0.00 0.00 0.00

GEFSCGP_prec_meanprecacc_066.txt.gz
Total_Precipitation_Accumulation
0.87 0.85 0.58 0.27 0.14 0.05 0.03 0.04 0.02 0.01 0.00 0.01 0.00 0.00 0.00 0.00 0.00 0.00 0.00 0.00 0.00 0.00 0.00 0.00 0.00 0.00 0.00 0.00 0.00 0.00 0.00 0.01 0.04 0.08 0.09 0.10 0.12 0.15 0.18 0.18 0.18 0.17 0.14 0.11
0.88 0.64 0.31 0.20 0.17 0.12 0.08 0.07 0.05 0.02 0.01 0.01 0.01 0.00 0.00 0.00 0.00 0.00 0.00 0.00 0.00 0.00 0.00 0.00 0.00 0.00 0.00 0.00 0.00 0.00 0.00 0.00 0.02 0.03 0.04 0.09 0.17 0.22 0.27 0.27 0.25 0.22 0.20 0.17
0.64 0.38 0.29 0.31 0.29 0.23 0.14 0.09 0.06 0.04 0.02 0.02 0.02 0.01 0.00 0.00 0.00 0.00 0.00 0.00 0.00 0.00 0.00 0.00 0.00 0.00 0.00 0.00 0.00 0.00 0.00 0.00 0.01 0.03 0.08 0.13 0.18 0.20 0.20 0.16 0.15 0.19 0.24 0.26
0.61 0.36 0.38 0.44 0.35 0.26 0.20 0.09 0.09 0.08 0.09 0.07 0.04 0.03 0.00 0.00 0.00 0.00 0.00 0.00 0.00 0.00 0.00 0.00 0.00 0.00 0.00 0.00 0.00 0.00 0.00 0.00 0.00 0.01 0.04 0.06 0.09 0.10 0.10 0.14 0.18 0.23 0.25 0.27
0.63 0.41 0.42 0.51 0.33 0.23 0.20 0.10 0.13 0.15 0.17 0.16 0.08 0.06 0.01 0.00 0.00 0.00 0.00 0.00 0.00 0.00 0.00 0.00 0.00 0.00 0.00 0.00 0.00 0.00 0.00 0.00 0.00 0.00 0.01 0.04 0.07 0.09 0.11 0.13 0.16 0.18 0.19 0.22
0.48 0.43 0.48 0.44 0.30 0.26 0.25 0.27 0.27 0.29 0.35 0.32 0.11 0.08 0.03 0.00 0.00 0.00 0.00 0.00 0.00 0.00 0.00 0.00 0.00 0.00 0.00 0.00 0.00 0.00 0.00 0.00 0.00 0.00 0.00 0.02 0.04 0.07 0.08 0.09 0.11 0.14 0.16 0.16
0.65 0.52 0.45 0.44 0.52 0.46 0.50 0.71 0.79 0.63 0.55 0.29 0.07 0.07 0.03 0.00 0.00 0.00 0.00 0.00 0.00 0.00 0.00 0.00 0.00 0.00 0.00 0.00 0.00 0.00 0.00 0.00 0.00 0.00 0.01 0.01 0.04 0.07 0.09 0.10 0.11 0.13 0.13 0.13
0.68 0.60 0.38 0.46 0.65 0.63 0.56 0.70 0.74 0.48 0.27 0.11 0.05 0.04 0.01 0.00 0.00 0.00 0.00 0.00 0.00 0.00 0.00 0.00 0.00 0.00 0.00 0.00 0.00 0.00 0.00 0.00 0.00 0.01 0.01 0.01 0.03 0.05 0.06 0.08 0.09 0.10 0.12 0.15
0.46 0.42 0.25 0.33 0.46 0.51 0.53 0.56 0.46 0.51 0.33 0.18 0.08 0.03 0.01 0.00 0.00 0.00 0.00 0.00 0.00 0.00 0.00 0.00 0.00 0.00 0.00 0.00 0.00 0.00 0.00 0.01 0.01 0.01 0.01 0.01 0.02 0.03 0.05 0.06 0.07 0.08 0.10 0.12
0.40 0.50 0.31 0.35 0.53 0.60 0.54 0.44 0.52 0.81 0.56 0.28 0.09 0.03 0.01 0.00 0.00 0.00 0.00 0.00 0.00 0.00 0.00 0.00 0.00 0.00 0.00 0.00 0.00 0.00 0.00 0.01 0.01 0.02 0.02 0.02 0.02 0.03 0.05 0.05 0.05 0.06 0.07 0.09
0.41 0.63 0.47 0.50 0.63 0.57 0.56 0.61 0.62 0.62 0.44 0.35 0.18 0.04 0.01 0.01 0.01 0.00 0.00 0.00 0.00 0.00 0.00 0.00 0.00 0.00 0.00 0.00 0.00 0.00 0.01 0.01 0.01 0.01 0.01 0.02 0.02 0.03 0.03 0.04 0.05 0.06 0.06 0.06
0.38 0.70 0.58 0.43 0.38 0.40 0.46 0.45 0.53 0.68 0.49 0.38 0.27 0.08 0.01 0.01 0.01 0.01 0.01 0.01 0.01 0.00 0.00 0.00 0.00 0.00 0.00 0.01 0.01 0.01 0.02 0.02 0.02 0.01 0.01 0.02 0.02 0.02 0.03 0.04 0.05 0.05 0.05 0.05
0.37 0.72 0.75 0.54 0.48 0.53 0.56 0.44 0.43 0.63 0.80 0.61 0.41 0.12 0.02 0.02 0.02 0.02 0.03 0.03 0.03 0.02 0.01 0.01 0.01 0.01 0.01 0.02 0.02 0.02 0.02 0.02 0.02 0.02 0.03 0.03 0.03 0.03 0.04 0.06 0.06 0.05 0.05 0.05
0.55 0.76 0.69 0.50 0.45 0.53 0.51 0.40 0.49 0.93 1.06 0.57 0.27 0.10 0.05 0.04 0.06 0.07 0.07 0.06 0.05 0.04 0.04 0.03 0.02 0.02 0.02 0.02 0.02 0.02 0.02 0.02 0.03 0.03 0.04 0.04 0.05 0.06 0.06 0.06 0.06 0.06 0.05 0.06
0.56 0.79 0.60 0.37 0.29 0.44 0.46 0.44 0.53 0.75 0.70 0.61 0.29 0.14 0.10 0.09 0.12 0.12 0.10 0.08 0.07 0.06 0.05 0.05 0.04 0.04 0.04 0.03 0.03 0.02 0.02 0.02 0.03 0.04 0.05 0.06 0.07 0.06 0.07 0.06 0.06 0.06 0.06 0.06
0.43 0.66 0.64 0.44 0.27 0.37 0.42 0.39 0.41 0.45 0.47 0.44 0.31 0.24 0.13 0.12 0.14 0.13 0.10 0.09 0.08 0.06 0.06 0.05 0.04 0.04 0.04 0.04 0.05 0.05 0.04 0.04 0.04 0.06 0.07 0.07 0.07 0.07 0.07 0.07 0.08 0.09 0.10 0.10
0.31 0.52 0.70 0.49 0.30 0.38 0.43 0.37 0.39 0.37 0.33 0.34 0.36 0.27 0.17 0.17 0.17 0.15 0.11 0.09 0.08 0.05 0.04 0.03 0.03 0.04 0.03 0.03 0.03 0.03 0.04 0.05 0.05 0.06 0.08 0.08 0.08 0.08 0.08 0.10 0.15 0.18 0.20 0.22
0.18 0.40 0.63 0.44 0.33 0.45 0.34 0.27 0.28 0.30 0.27 0.29 0.27 0.20 0.15 0.15 0.17 0.16 0.12 0.08 0.06 0.04 0.03 0.02 0.02 0.02 0.02 0.02 0.02 0.02 0.02 0.04 0.05 0.07 0.10 0.12 0.13 0.17 0.20 0.20 0.25 0.31 0.35 0.37
0.08 0.29 0.48 0.37 0.30 0.23 0.18 0.18 0.21 0.27 0.27 0.24 0.17 0.12 0.10 0.11 0.16 0.16 0.13 0.09 0.06 0.04 0.04 0.04 0.03 0.03 0.02 0.03 0.03 0.04 0.05 0.06 0.06 0.08 0.11 0.14 0.17 0.24 0.30 0.31 0.34 0.38 0.43 0.46
0.07 0.18 0.37 0.31 0.26 0.15 0.09 0.06 0.08 0.17 0.25 0.16 0.14 0.13 0.12 0.14 0.16 0.15 0.12 0.10 0.10 0.08 0.06 0.06 0.07 0.08 0.09 0.09 0.10 0.10 0.11 0.15 0.17 0.18 0.22 0.26 0.31 0.37 0.40 0.39 0.39 0.38 0.36 0.35
0.11 0.19 0.25 0.23 0.19 0.04 0.02 0.03 0.04 0.14 0.17 0.07 0.06 0.08 0.10 0.10 0.09 0.11 0.09 0.08 0.10 0.11 0.11 0.11 0.11 0.13 0.15 0.15 0.16 0.17 0.18 0.24 0.30 0.33 0.35 0.35 0.37 0.38 0.38 0.35 0.32 0.28 0.23 0.19
0.04 0.06 0.07 0.08 0.09 0.03 0.02 0.02 0.04 0.06 0.04 0.05 0.05 0.06 0.08 0.09 0.07 0.08 0.09 0.09 0.08 0.07 0.09 0.11 0.13 0.15 0.17 0.20 0.24 0.25 0.27 0.31 0.32 0.32 0.32 0.31 0.30 0.27 0.26 0.23 0.19 0.15 0.11 0.08
0.02 0.02 0.02 0.01 0.01 0.01 0.01 0.02 0.01 0.01 0.02 0.03 0.04 0.06 0.06 0.06 0.07 0.06 0.05 0.05 0.06 0.06 0.08 0.10 0.14 0.17 0.19 0.21 0.24 0.26 0.26 0.25 0.25 0.24 0.23 0.20 0.16 0.14 0.12 0.10 0.08 0.06 0.05 0.03
0.06 0.04 0.03 0.02 0.01 0.00 0.01 0.01 0.01 0.01 0.01 0.01 0.01 0.02 0.05 0.07 0.07 0.06 0.04 0.03 0.03 0.03 0.05 0.06 0.08 0.10 0.11 0.12 0.15 0.16 0.14 0.13 0.13 0.12 0.12 0.09 0.06 0.04 0.03 0.02 0.02 0.01 0.01 0.00
0.08 0.06 0.04 0.02 0.01 0.01 0.01 0.01 0.01 0.01 0.01 0.00 0.00 0.01 0.01 0.03 0.03 0.04 0.03 0.03 0.02 0.02 0.02 0.03 0.03 0.04 0.05 0.05 0.06 0.06 0.05 0.04 0.04 0.03 0.03 0.02 0.02 0.01 0.01 0.00 0.00 0.00 0.00 0.00
0.01 0.01 0.02 0.03 0.02 0.02 0.02 0.01 0.01 0.00 0.00 0.00 0.00 0.00 0.00 0.01 0.01 0.01 0.01 0.01 0.01 0.01 0.01 0.01 0.01 0.01 0.01 0.01 0.01 0.01 0.01 0.01 0.01 0.00 0.00 0.00 0.00 0.00 0.00 0.00 0.00 0.00 0.00 0.00

GEFSCGP_prec_meanprecacc_072.txt.gz
Total_Precipitation_Accumulation
1.05 0.97 0.65 0.33 0.18 0.08 0.05 0.05 0.03 0.01 0.00 0.01 0.01 0.00 0.00 0.00 0.00 0.00 0.00 0.00 0.00 0.00 0.00 0.00 0.00 0.00 0.00 0.00 0.00 0.00 0.00 0.01 0.04 0.08 0.10 0.11 0.13 0.16 0.19 0.20 0.21 0.20 0.17 0.14
1.03 0.72 0.34 0.24 0.23 0.17 0.11 0.09 0.06 0.03 0.01 0.01 0.01 0.00 0.00 0.00 0.00 0.00 0.00 0.00 0.00 0.00 0.00 0.00 0.00 0.00 0.00 0.00 0.00 0.00 0.00 0.01 0.02 0.04 0.05 0.10 0.18 0.24 0.29 0.28 0.26 0.25 0.22 0.20
0.73 0.43 0.32 0.35 0.35 0.28 0.17 0.11 0.07 0.05 0.03 0.03 0.02 0.01 0.00 0.00 0.00 0.00 0.00 0.00 0.00 0.00 0.00 0.00 0.00 0.00 0.00 0.00 0.00 0.00 0.00 0.00 0.01 0.04 0.09 0.14 0.19 0.20 0.21 0.17 0.16 0.20 0.26 0.28
0.68 0.40 0.42 0.48 0.40 0.29 0.23 0.10 0.10 0.10 0.10 0.08 0.04 0.03 0.00 0.00 0.00 0.00 0.00 0.00 0.00 0.00 0.00 0.00 0.00 0.00 0.00 0.00 0.00 0.00 0.00 0.00 0.00 0.02 0.04 0.07 0.09 0.10 0.11 0.15 0.19 0.23 0.26 0.29
0.70 0.45 0.47 0.57 0.38 0.26 0.22 0.12 0.14 0.17 0.18 0.17 0.09 0.06 0.01 0.00 0.00 0.00 0.00 0.00 0.00 0.00 0.00 0.00 0.00 0.00 0.00 0.00 0.00 0.00 0.00 0.00 0.00 0.00 0.01 0.04 0.07 0.09 0.11 0.13 0.16 0.18 0.20 0.22
0.54 0.48 0.54 0.51 0.36 0.30 0.27 0.30 0.30 0.32 0.38 0.34 0.12 0.08 0.03 0.00 0.00 0.00 0.00 0.00 0.00 0.00 0.00 0.00 0.00 0.00 0.00 0.00 0.00 0.00 0.00 0.00 0.00 0.00 0.00 0.02 0.04 0.07 0.08 0.09 0.11 0.14 0.16 0.17
0.72 0.58 0.52 0.52 0.60 0.53 0.53 0.74 0.84 0.70 0.60 0.30 0.07 0.07 0.03 0.00 0.00 0.00 0.00 0.00 0.00 0.00 0.00 0.00 0.00 0.00 0.00 0.00 0.00 0.00 0.00 0.00 0.00 0.00 0.01 0.01 0.04 0.07 0.09 0.10 0.11 0.13 0.13 0.13
0.76 0.68 0.45 0.54 0.73 0.70 0.60 0.72 0.76 0.50 0.29 0.11 0.05 0.04 0.01 0.00 0.00 0.00 0.00 0.00 0.00 0.00 0.00 0.00 0.00 0.00 0.00 0.00 0.00 0.00 0.00 0.00 0.00 0.01 0.01 0.01 0.03 0.05 0.06 0.08 0.09 0.10 0.12 0.15
0.53 0.47 0.30 0.38 0.51 0.55 0.57 0.58 0.47 0.52 0.34 0.18 0.08 0.03 0.01 0.00 0.00 0.00 0.00 0.00 0.00 0.00 0.00 0.00 0.00 0.00 0.00 0.00 0.00 0.00 0.00 0.01 0.01 0.01 0.01 0.01 0.02 0.03 0.05 0.06 0.07 0.08 0.10 0.12
0.45 0.55 0.36 0.40 0.59 0.64 0.57 0.47 0.54 0.83 0.58 0.29 0.10 0.03 0.01 0.00 0.00 0.00 0.00 0.00 0.00 0.00 0.00 0.00 0.00 0.00 0.00 0.00 0.00 0.00 0.00 0.01 0.01 0.02 0.02 0.02 0.02 0.03 0.05 0.05 0.05 0.06 0.07 0.09
0.43 0.67 0.51 0.54 0.68 0.61 0.58 0.63 0.63 0.63 0.45 0.36 0.18 0.04 0.01 0.01 0.01 0.00 0.00 0.00 0.00 0.00 0.00 0.00 0.00 0.00 0.00 0.00 0.00 0.00 0.01 0.01 0.01 0.01 0.01 0.02 0.02 0.03 0.03 0.04 0.05 0.06 0.06 0.06
0.39 0.72 0.61 0.45 0.39 0.41 0.47 0.46 0.53 0.68 0.49 0.38 0.27 0.08 0.01 0.01 0.01 0.01 0.01 0.01 0.01 0.00 0.00 0.00 0.00 0.00 0.00 0.01 0.01 0.01 0.02 0.02 0.02 0.01 0.01 0.02 0.02 0.02 0.03 0.04 0.05 0.05 0.05 0.05
0.37 0.72 0.76 0.55 0.49 0.53 0.56 0.44 0.43 0.63 0.80 0.62 0.41 0.12 0.02 0.02 0.02 0.02 0.03 0.03 0.03 0.02 0.01 0.01 0.01 0.01 0.01 0.02 0.02 0.02 0.02 0.02 0.02 0.02 0.03 0.03 0.03 0.03 0.04 0.06 0.06 0.05 0.05 0.05
0.55 0.76 0.69 0.51 0.45 0.53 0.51 0.40 0.49 0.93 1.06 0.57 0.27 0.10 0.05 0.04 0.06 0.07 0.07 0.06 0.05 0.04 0.04 0.03 0.02 0.02 0.02 0.02 0.02 0.02 0.02 0.02 0.03 0.03 0.04 0.04 0.05 0.06 0.06 0.06 0.06 0.06 0.05 0.06
0.56 0.79 0.60 0.37 0.29 0.44 0.46 0.44 0.53 0.75 0.70 0.61 0.29 0.14 0.10 0.09 0.12 0.12 0.10 0.08 0.07 0.06 0.05 0.05 0.04 0.04 0.04 0.03 0.03 0.02 0.02 0.02 0.03 0.04 0.05 0.06 0.07 0.06 0.07 0.06 0.06 0.06 0.06 0.06
0.43 0.66 0.64 0.44 0.27 0.37 0.42 0.39 0.41 0.45 0.47 0.44 0.31 0.24 0.13 0.12 0.14 0.13 0.10 0.09 0.08 0.06 0.06 0.05 0.04 0.04 0.04 0.04 0.05 0.05 0.04 0.04 0.04 0.06 0.07 0.07 0.07 0.07 0.07 0.07 0.08 0.09 0.10 0.10
0.31 0.52 0.70 0.49 0.30 0.38 0.43 0.37 0.39 0.37 0.33 0.34 0.36 0.27 0.17 0.17 0.17 0.15 0.11 0.09 0.08 0.05 0.04 0.03 0.03 0.04 0.03 0.03 0.03 0.03 0.04 0.05 0.05 0.06 0.08 0.08 0.08 0.08 0.08 0.10 0.15 0.18 0.20 0.22
0.18 0.40 0.63 0.44 0.33 0.45 0.34 0.27 0.28 0.30 0.27 0.29 0.27 0.20 0.15 0.15 0.17 0.16 0.12 0.08 0.06 0.04 0.03 0.02 0.02 0.02 0.02 0.02 0.02 0.02 0.02 0.04 0.05 0.07 0.10 0.12 0.13 0.17 0.20 0.20 0.25 0.31 0.35 0.37
0.08 0.29 0.49 0.38 0.30 0.23 0.18 0.18 0.21 0.27 0.27 0.24 0.17 0.12 0.10 0.11 0.16 0.16 0.13 0.09 0.06 0.04 0.04 0.04 0.03 0.03 0.02 0.03 0.03 0.04 0.05 0.06 0.06 0.08 0.11 0.14 0.17 0.24 0.30 0.31 0.34 0.38 0.43 0.46
0.07 0.18 0.38 0.31 0.27 0.15 0.09 0.06 0.08 0.17 0.25 0.16 0.14 0.13 0.13 0.14 0.17 0.15 0.12 0.10 0.10 0.08 0.06 0.06 0.07 0.08 0.09 0.09 0.10 0.11 0.11 0.15 0.17 0.18 0.22 0.26 0.31 0.37 0.40 0.39 0.39 0.38 0.36 0.35
0.12 0.20 0.26 0.24 0.20 0.04 0.02 0.03 0.04 0.14 0.17 0.07 0.06 0.08 0.11 0.10 0.09 0.11 0.09 0.08 0.10 0.11 0.11 0.11 0.11 0.13 0.15 0.15 0.16 0.17 0.18 0.24 0.30 0.33 0.35 0.35 0.37 0.38 0.38 0.35 0.32 0.28 0.23 0.19
0.04 0.06 0.07 0.09 0.10 0.04 0.02 0.02 0.04 0.06 0.05 0.05 0.05 0.07 0.08 0.09 0.07 0.08 0.09 0.09 0.08 0.07 0.09 0.11 0.13 0.15 0.17 0.20 0.24 0.25 0.27 0.31 0.32 0.32 0.32 0.31 0.30 0.27 0.26 0.24 0.19 0.15 0.11 0.08
0.02 0.02 0.02 0.02 0.01 0.01 0.01 0.02 0.01 0.01 0.02 0.03 0.05 0.06 0.06 0.06 0.07 0.06 0.05 0.06 0.06 0.06 0.08 0.10 0.14 0.17 0.19 0.21 0.24 0.26 0.26 0.25 0.25 0.24 0.23 0.20 0.16 0.14 0.12 0.10 0.08 0.06 0.05 0.03
0.06 0.04 0.03 0.02 0.01 0.00 0.01 0.01 0.01 0.01 0.01 0.01 0.02 0.03 0.06 0.07 0.07 0.07 0.04 0.03 0.03 0.03 0.05 0.06 0.08 0.10 0.11 0.12 0.15 0.16 0.14 0.13 0.13 0.12 0.12 0.09 0.06 0.04 0.03 0.02 0.02 0.01 0.01 0.00
0.08 0.06 0.04 0.02 0.01 0.01 0.01 0.01 0.01 0.01 0.01 0.00 0.00 0.01 0.02 0.03 0.04 0.04 0.04 0.03 0.03 0.02 0.02 0.03 0.03 0.04 0.05 0.05 0.06 0.06 0.05 0.04 0.04 0.03 0.03 0.02 0.02 0.01 0.01 0.00 0.00 0.00 0.00 0.00
0.01 0.02 0.02 0.03 0.02 0.02 0.02 0.01 0.01 0.00 0.00 0.00 0.00 0.00 0.00 0.01 0.01 0.01 0.01 0.01 0.01 0.01 0.01 0.01 0.01 0.01 0.01 0.01 0.01 0.01 0.01 0.01 0.01 0.00 0.00 0.00 0.00 0.00 0.00 0.00 0.00 0.00 0.00 0.00

GEFSCGP_prec_meanprecacc_078.txt.gz
Total_Precipitation_Accumulation
1.16 1.07 0.72 0.36 0.23 0.11 0.05 0.05 0.03 0.01 0.00 0.01 0.01 0.00 0.00 0.00 0.00 0.00 0.00 0.00 0.00 0.00 0.00 0.00 0.01 0.02 0.02 0.01 0.01 0.01 0.01 0.02 0.05 0.09 0.11 0.12 0.14 0.17 0.19 0.20 0.22 0.21 0.18 0.15
1.14 0.80 0.38 0.27 0.28 0.23 0.14 0.10 0.06 0.03 0.01 0.01 0.01 0.00 0.00 0.00 0.00 0.00 0.00 0.00 0.00 0.00 0.00 0.00 0.00 0.01 0.01 0.02 0.02 0.01 0.01 0.01 0.03 0.04 0.07 0.12 0.20 0.26 0.31 0.30 0.28 0.26 0.24 0.22
0.81 0.47 0.34 0.39 0.41 0.36 0.23 0.12 0.07 0.05 0.04 0.03 0.02 0.01 0.00 0.00 0.00 0.00 0.00 0.00 0.00 0.00 0.00 0.00 0.00 0.00 0.01 0.01 0.02 0.02 0.01 0.01 0.02 0.05 0.10 0.15 0.20 0.22 0.22 0.19 0.19 0.23 0.29 0.30
0.75 0.43 0.44 0.52 0.45 0.36 0.28 0.13 0.11 0.10 0.11 0.08 0.05 0.03 0.00 0.00 0.00 0.00 0.00 0.00 0.00 0.00 0.00 0.00 0.00 0.00 0.00 0.00 0.01 0.01 0.01 0.00 0.01 0.02 0.05 0.07 0.10 0.11 0.12 0.16 0.20 0.25 0.28 0.31
0.77 0.49 0.50 0.59 0.41 0.31 0.26 0.15 0.17 0.19 0.19 0.18 0.09 0.06 0.01 0.00 0.00 0.00 0.00 0.00 0.00 0.00 0.00 0.00 0.00 0.00 0.00 0.00 0.00 0.01 0.00 0.00 0.01 0.01 0.02 0.05 0.08 0.10 0.12 0.14 0.17 0.20 0.21 0.24
0.59 0.52 0.56 0.52 0.38 0.34 0.31 0.34 0.35 0.35 0.40 0.36 0.12 0.08 0.03 0.00 0.00 0.00 0.00 0.00 0.00 0.00 0.00 0.00 0.00 0.00 0.00 0.00 0.00 0.00 0.00 0.00 0.01 0.00 0.01 0.02 0.05 0.07 0.09 0.09 0.12 0.15 0.17 0.17
0.78 0.62 0.54 0.54 0.63 0.58 0.60 0.80 0.94 0.80 0.67 0.32 0.07 0.07 0.03 0.00 0.00 0.00 0.00 0.00 0.00 0.00 0.00 0.00 0.00 0.00 0.00 0.00 0.00 0.00 0.00 0.00 0.00 0.00 0.01 0.01 0.04 0.07 0.09 0.10 0.11 0.13 0.13 0.13
0.81 0.72 0.48 0.56 0.76 0.75 0.66 0.77 0.81 0.55 0.31 0.12 0.05 0.04 0.01 0.00 0.00 0.00 0.00 0.00 0.00 0.00 0.00 0.00 0.00 0.00 0.00 0.00 0.00 0.00 0.00 0.00 0.00 0.01 0.01 0.01 0.03 0.05 0.06 0.08 0.09 0.10 0.12 0.15
0.55 0.51 0.32 0.39 0.53 0.59 0.63 0.62 0.49 0.54 0.35 0.18 0.08 0.03 0.01 0.00 0.00 0.00 0.00 0.00 0.00 0.00 0.00 0.00 0.00 0.00 0.00 0.00 0.00 0.00 0.00 0.01 0.01 0.01 0.01 0.01 0.02 0.03 0.05 0.06 0.07 0.08 0.10 0.12
0.48 0.58 0.38 0.42 0.62 0.69 0.62 0.50 0.56 0.85 0.59 0.29 0.10 0.03 0.01 0.00 0.00 0.00 0.00 0.00 0.00 0.00 0.00 0.00 0.00 0.00 0.00 0.00 0.00 0.00 0.00 0.01 0.01 0.02 0.02 0.02 0.02 0.03 0.05 0.05 0.05 0.06 0.07 0.09
0.45 0.70 0.53 0.56 0.71 0.65 0.61 0.66 0.66 0.65 0.46 0.36 0.18 0.04 0.01 0.01 0.01 0.00 0.00 0.00 0.00 0.00 0.00 0.00 0.00 0.00 0.00 0.00 0.00 0.00 0.01 0.01 0.01 0.01 0.01 0.02 0.02 0.03 0.03 0.04 0.05 0.06 0.06 0.06
0.40 0.73 0.62 0.47 0.41 0.43 0.50 0.49 0.55 0.70 0.50 0.38 0.27 0.08 0.01 0.01 0.01 0.01 0.01 0.01 0.01 0.00 0.00 0.00 0.00 0.00 0.00 0.01 0.01 0.01 0.02 0.02 0.02 0.01 0.01 0.02 0.02 0.02 0.03 0.04 0.05 0.05 0.05 0.05
0.38 0.73 0.77 0.56 0.50 0.54 0.58 0.46 0.45 0.64 0.81 0.62 0.41 0.12 0.02 0.02 0.02 0.02 0.03 0.03 0.03 0.02 0.01 0.01 0.01 0.01 0.01 0.02 0.02 0.02 0.02 0.02 0.02 0.02 0.03 0.03 0.03 0.03 0.04 0.06 0.06 0.05 0.05 0.05
0.56 0.76 0.69 0.51 0.45 0.54 0.52 0.41 0.50 0.95 1.09 0.58 0.27 0.10 0.05 0.04 0.06 0.07 0.07 0.06 0.05 0.04 0.04 0.03 0.02 0.02 0.02 0.02 0.02 0.02 0.02 0.02 0.03 0.03 0.04 0.04 0.05 0.06 0.06 0.06 0.06 0.06 0.05 0.06
0.57 0.80 0.60 0.37 0.29 0.44 0.46 0.44 0.53 0.76 0.71 0.61 0.29 0.14 0.10 0.09 0.12 0.12 0.10 0.08 0.07 0.06 0.05 0.05 0.04 0.04 0.04 0.03 0.03 0.02 0.02 0.02 0.03 0.04 0.05 0.06 0.07 0.06 0.07 0.06 0.06 0.06 0.06 0.06
0.44 0.66 0.64 0.44 0.27 0.37 0.42 0.39 0.41 0.45 0.47 0.44 0.31 0.24 0.13 0.12 0.14 0.13 0.10 0.09 0.08 0.06 0.06 0.05 0.04 0.04 0.04 0.04 0.05 0.05 0.04 0.04 0.04 0.06 0.07 0.07 0.07 0.07 0.07 0.07 0.08 0.09 0.10 0.10
0.31 0.52 0.70 0.49 0.30 0.38 0.43 0.37 0.39 0.37 0.33 0.34 0.36 0.27 0.17 0.17 0.17 0.15 0.11 0.09 0.08 0.05 0.04 0.03 0.03 0.04 0.03 0.03 0.03 0.03 0.04 0.05 0.05 0.06 0.08 0.08 0.08 0.08 0.08 0.10 0.15 0.18 0.20 0.22
0.18 0.41 0.64 0.44 0.33 0.45 0.34 0.27 0.28 0.30 0.27 0.29 0.27 0.20 0.15 0.15 0.17 0.16 0.12 0.08 0.06 0.04 0.03 0.02 0.02 0.02 0.02 0.02 0.02 0.02 0.03 0.04 0.05 0.07 0.10 0.12 0.13 0.17 0.20 0.20 0.25 0.31 0.35 0.37
0.08 0.29 0.50 0.39 0.30 0.23 0.18 0.18 0.21 0.27 0.27 0.24 0.17 0.12 0.10 0.11 0.16 0.16 0.13 0.09 0.06 0.04 0.04 0.04 0.03 0.03 0.02 0.03 0.03 0.04 0.05 0.06 0.06 0.08 0.11 0.14 0.17 0.24 0.30 0.31 0.34 0.38 0.43 0.46
0.07 0.19 0.40 0.34 0.28 0.15 0.09 0.06 0.08 0.17 0.25 0.16 0.14 0.13 0.13 0.14 0.17 0.15 0.12 0.10 0.10 0.08 0.06 0.06 0.07 0.08 0.09 0.09 0.10 0.11 0.11 0.15 0.17 0.18 0.22 0.26 0.31 0.37 0.40 0.39 0.39 0.38 0.36 0.35
0.12 0.21 0.29 0.26 0.21 0.04 0.02 0.03 0.04 0.14 0.17 0.07 0.06 0.08 0.11 0.10 0.09 0.11 0.09 0.08 0.10 0.11 0.11 0.11 0.11 0.13 0.15 0.15 0.16 0.17 0.18 0.24 0.30 0.33 0.35 0.35 0.37 0.38 0.38 0.35 0.32 0.28 0.23 0.19
0.04 0.07 0.08 0.10 0.12 0.04 0.02 0.02 0.04 0.06 0.05 0.05 0.05 0.07 0.08 0.09 0.08 0.08 0.09 0.09 0.08 0.08 0.09 0.11 0.13 0.15 0.17 0.20 0.24 0.25 0.28 0.31 0.32 0.32 0.32 0.31 0.30 0.27 0.26 0.24 0.19 0.15 0.11 0.08
0.03 0.02 0.02 0.02 0.02 0.01 0.01 0.02 0.01 0.01 0.03 0.04 0.05 0.06 0.07 0.06 0.07 0.06 0.05 0.06 0.06 0.06 0.08 0.11 0.14 0.17 0.19 0.21 0.24 0.26 0.26 0.25 0.25 0.24 0.23 0.20 0.16 0.14 0.12 0.10 0.08 0.06 0.05 0.03
0.07 0.04 0.04 0.03 0.01 0.00 0.01 0.01 0.01 0.01 0.01 0.01 0.02 0.03 0.07 0.08 0.08 0.07 0.04 0.04 0.04 0.04 0.05 0.06 0.08 0.10 0.11 0.12 0.15 0.16 0.14 0.13 0.13 0.12 0.12 0.09 0.06 0.04 0.03 0.02 0.02 0.01 0.01 0.00
0.09 0.08 0.05 0.03 0.01 0.01 0.01 0.01 0.01 0.01 0.01 0.00 0.00 0.01 0.02 0.04 0.04 0.05 0.05 0.04 0.04 0.04 0.03 0.03 0.03 0.04 0.05 0.05 0.06 0.06 0.05 0.04 0.04 0.03 0.03 0.02 0.02 0.01 0.01 0.01 0.00 0.00 0.00 0.00
0.01 0.03 0.04 0.04 0.03 0.02 0.02 0.02 0.01 0.01 0.00 0.00 0.00 0.01 0.01 0.01 0.02 0.02 0.02 0.02 0.02 0.03 0.02 0.02 0.02 0.02 0.02 0.02 0.02 0.02 0.01 0.01 0.01 0.00 0.00 0.00 0.00 0.00 0.00 0.00 0.00 0.00 0.00 0.00

GEFSCGP_prec_meanprecacc_084.txt.gz
Total_Precipitation_Accumulation
1.26 1.14 0.76 0.40 0.25 0.14 0.08 0.06 0.04 0.01 0.00 0.01 0.01 0.00 0.00 0.00 0.00 0.00 0.00 0.00 0.00 0.01 0.01 0.01 0.01 0.03 0.04 0.05 0.06 0.07 0.08 0.09 0.12 0.15 0.16 0.15 0.16 0.19 0.21 0.22 0.23 0.22 0.18 0.16
1.20 0.84 0.40 0.30 0.29 0.25 0.18 0.12 0.07 0.03 0.01 0.02 0.01 0.00 0.00 0.00 0.00 0.00 0.00 0.00 0.00 0.00 0.00 0.00 0.01 0.02 0.02 0.04 0.05 0.06 0.07 0.08 0.09 0.10 0.12 0.17 0.24 0.29 0.33 0.32 0.30 0.28 0.26 0.24
0.84 0.50 0.35 0.41 0.43 0.39 0.26 0.15 0.09 0.06 0.04 0.03 0.02 0.01 0.00 0.00 0.00 0.00 0.00 0.00 0.00 0.00 0.00 0.00 0.01 0.01 0.01 0.02 0.04 0.05 0.06 0.07 0.08 0.11 0.16 0.21 0.25 0.25 0.24 0.21 0.20 0.25 0.30 0.31
0.77 0.45 0.45 0.53 0.46 0.38 0.31 0.14 0.13 0.11 0.13 0.09 0.05 0.03 0.00 0.00 0.00 0.00 0.00 0.00 0.00 0.00 0.00 0.00 0.00 0.01 0.01 0.01 0.02 0.03 0.03 0.03 0.04 0.07 0.10 0.13 0.15 0.14 0.14 0.18 0.22 0.27 0.29 0.31
0.79 0.50 0.51 0.60 0.42 0.33 0.28 0.18 0.20 0.21 0.21 0.19 0.10 0.06 0.01 0.00 0.00 0.00 0.00 0.00 0.00 0.00 0.00 0.00 0.00 0.01 0.00 0.01 0.01 0.01 0.02 0.02 0.03 0.03 0.04 0.08 0.11 0.12 0.14 0.15 0.18 0.21 0.22 0.24
0.61 0.54 0.57 0.53 0.39 0.36 0.33 0.37 0.39 0.38 0.44 0.39 0.12 0.08 0.03 0.00 0.00 0.00 0.00 0.00 0.00 0.00 0.00 0.00 0.00 0.00 0.00 0.00 0.00 0.01 0.01 0.01 0.02 0.02 0.02 0.04 0.06 0.09 0.10 0.10 0.12 0.15 0.17 0.17
0.81 0.64 0.55 0.55 0.65 0.61 0.63 0.86 1.02 0.87 0.73 0.34 0.07 0.07 0.03 0.00 0.00 0.00 0.00 0.00 0.00 0.00 0.00 0.00 0.00 0.00 0.00 0.00 0.00 0.00 0.00 0.01 0.01 0.01 0.01 0.02 0.04 0.08 0.10 0.10 0.11 0.13 0.13 0.13
0.83 0.74 0.49 0.57 0.78 0.79 0.68 0.81 0.87 0.60 0.34 0.13 0.05 0.04 0.01 0.00 0.00 0.00 0.00 0.00 0.00 0.00 0.00 0.00 0.00 0.00 0.00 0.00 0.00 0.00 0.00 0.00 0.01 0.01 0.01 0.01 0.03 0.05 0.06 0.08 0.09 0.10 0.12 0.15
0.57 0.53 0.33 0.40 0.55 0.61 0.65 0.65 0.52 0.57 0.36 0.19 0.08 0.03 0.01 0.00 0.00 0.00 0.00 0.00 0.00 0.00 0.00 0.00 0.00 0.00 0.00 0.00 0.00 0.00 0.00 0.01 0.01 0.01 0.01 0.01 0.02 0.03 0.05 0.06 0.07 0.08 0.10 0.12
0.49 0.61 0.39 0.43 0.63 0.71 0.65 0.53 0.58 0.87 0.61 0.29 0.10 0.03 0.01 0.00 0.00 0.00 0.00 0.00 0.00 0.00 0.00 0.00 0.00 0.00 0.00 0.00 0.00 0.00 0.00 0.01 0.01 0.02 0.02 0.02 0.02 0.03 0.05 0.05 0.05 0.06 0.07 0.09
0.47 0.72 0.56 0.57 0.73 0.67 0.64 0.71 0.69 0.67 0.47 0.37 0.18 0.04 0.01 0.01 0.01 0.00 0.00 0.00 0.00 0.00 0.00 0.00 0.00 0.00 0.00 0.00 0.00 0.00 0.01 0.01 0.01 0.01 0.01 0.02 0.02 0.03 0.03 0.04 0.05 0.06 0.06 0.06
0.41 0.75 0.65 0.48 0.42 0.45 0.52 0.51 0.58 0.73 0.52 0.39 0.27 0.08 0.01 0.01 0.01 0.01 0.01 0.01 0.01 0.00 0.00 0.00 0.00 0.00 0.00 0.01 0.01 0.01 0.02 0.02 0.02 0.01 0.01 0.02 0.02 0.02 0.03 0.04 0.05 0.05 0.05 0.05
0.39 0.74 0.80 0.58 0.51 0.56 0.60 0.48 0.46 0.66 0.83 0.63 0.42 0.12 0.02 0.02 0.02 0.02 0.03 0.03 0.03 0.02 0.01 0.01 0.01 0.01 0.01 0.02 0.02 0.02 0.02 0.02 0.02 0.02 0.03 0.03 0.03 0.03 0.04 0.06 0.06 0.05 0.05 0.05
0.59 0.79 0.70 0.53 0.46 0.54 0.53 0.42 0.52 0.97 1.13 0.60 0.27 0.10 0.05 0.04 0.06 0.07 0.07 0.06 0.05 0.04 0.04 0.03 0.02 0.02 0.02 0.02 0.02 0.02 0.02 0.02 0.03 0.03 0.04 0.04 0.05 0.06 0.06 0.06 0.06 0.06 0.05 0.06
0.60 0.83 0.62 0.38 0.29 0.44 0.46 0.44 0.54 0.77 0.72 0.62 0.29 0.14 0.10 0.09 0.12 0.12 0.10 0.08 0.07 0.06 0.05 0.05 0.04 0.04 0.04 0.03 0.03 0.02 0.02 0.02 0.03 0.04 0.05 0.06 0.07 0.06 0.07 0.06 0.06 0.06 0.06 0.06
0.45 0.68 0.65 0.44 0.27 0.37 0.42 0.39 0.41 0.45 0.47 0.45 0.31 0.24 0.13 0.12 0.14 0.13 0.10 0.09 0.08 0.06 0.06 0.05 0.04 0.04 0.04 0.04 0.05 0.05 0.04 0.04 0.04 0.06 0.07 0.07 0.07 0.07 0.07 0.07 0.08 0.09 0.10 0.10
0.32 0.53 0.71 0.49 0.30 0.39 0.43 0.37 0.39 0.37 0.33 0.34 0.36 0.27 0.17 0.17 0.17 0.15 0.11 0.09 0.08 0.05 0.04 0.03 0.03 0.04 0.03 0.03 0.03 0.03 0.04 0.05 0.05 0.06 0.08 0.08 0.08 0.08 0.08 0.10 0.15 0.18 0.20 0.22
0.19 0.42 0.67 0.46 0.34 0.46 0.34 0.27 0.28 0.30 0.27 0.29 0.27 0.20 0.15 0.15 0.17 0.16 0.12 0.08 0.06 0.04 0.03 0.02 0.02 0.02 0.02 0.02 0.02 0.02 0.03 0.04 0.05 0.07 0.10 0.12 0.13 0.17 0.20 0.20 0.25 0.31 0.35 0.37
0.09 0.31 0.54 0.43 0.33 0.24 0.18 0.18 0.21 0.27 0.27 0.24 0.17 0.12 0.10 0.11 0.16 0.16 0.13 0.09 0.06 0.04 0.04 0.04 0.03 0.03 0.02 0.03 0.03 0.04 0.05 0.06 0.06 0.08 0.11 0.14 0.17 0.24 0.30 0.31 0.34 0.38 0.43 0.46
0.07 0.20 0.44 0.38 0.31 0.16 0.09 0.06 0.08 0.17 0.25 0.16 0.14 0.13 0.13 0.14 0.17 0.15 0.12 0.10 0.10 0.08 0.06 0.06 0.07 0.08 0.09 0.09 0.10 0.11 0.11 0.15 0.17 0.18 0.22 0.26 0.31 0.37 0.40 0.40 0.39 0.38 0.36 0.35
0.13 0.23 0.33 0.30 0.25 0.05 0.03 0.03 0.05 0.14 0.17 0.07 0.06 0.08 0.11 0.10 0.09 0.11 0.09 0.08 0.10 0.11 0.11 0.11 0.11 0.13 0.15 0.15 0.16 0.17 0.18 0.24 0.30 0.33 0.35 0.35 0.37 0.38 0.38 0.35 0.32 0.28 0.23 0.19
0.05 0.09 0.10 0.12 0.15 0.06 0.02 0.03 0.05 0.06 0.05 0.05 0.06 0.07 0.08 0.09 0.08 0.08 0.10 0.09 0.08 0.08 0.09 0.11 0.13 0.15 0.17 0.20 0.24 0.25 0.28 0.31 0.32 0.32 0.32 0.31 0.30 0.27 0.26 0.24 0.20 0.15 0.12 0.08
0.04 0.04 0.04 0.04 0.03 0.02 0.02 0.02 0.02 0.02 0.03 0.04 0.06 0.07 0.07 0.07 0.08 0.06 0.05 0.06 0.06 0.06 0.08 0.11 0.14 0.17 0.19 0.21 0.24 0.26 0.26 0.25 0.25 0.24 0.23 0.20 0.16 0.14 0.13 0.10 0.08 0.06 0.05 0.03
0.08 0.06 0.06 0.04 0.02 0.01 0.02 0.02 0.02 0.02 0.01 0.01 0.02 0.04 0.07 0.08 0.08 0.07 0.04 0.04 0.04 0.04 0.05 0.06 0.08 0.10 0.11 0.12 0.15 0.16 0.15 0.13 0.13 0.12 0.12 0.09 0.06 0.05 0.04 0.03 0.02 0.01 0.01 0.01
0.11 0.10 0.08 0.05 0.03 0.02 0.02 0.02 0.02 0.01 0.01 0.01 0.01 0.02 0.03 0.04 0.04 0.05 0.05 0.04 0.04 0.04 0.03 0.03 0.03 0.04 0.05 0.05 0.06 0.06 0.06 0.05 0.04 0.03 0.03 0.02 0.02 0.01 0.01 0.01 0.01 0.00 0.00 0.00
0.02 0.04 0.07 0.07 0.04 0.04 0.03 0.02 0.02 0.01 0.01 0.01 0.01 0.01 0.01 0.02 0.02 0.02 0.02 0.02 0.02 0.03 0.03 0.02 0.02 0.02 0.02 0.02 0.02 0.02 0.02 0.01 0.01 0.01 0.01 0.00 0.00 0.00 0.00 0.00 0.00 0.01 0.00 0.00

GEFSCGP_prec_meanprecacc_090.txt.gz
Total_Precipitation_Accumulation
1.30 1.20 0.83 0.45 0.31 0.18 0.11 0.08 0.06 0.03 0.01 0.02 0.01 0.01 0.00 0.00 0.00 0.00 0.00 0.00 0.00 0.01 0.01 0.01 0.02 0.04 0.06 0.07 0.09 0.11 0.13 0.14 0.18 0.23 0.24 0.23 0.24 0.27 0.29 0.29 0.28 0.26 0.22 0.19
1.23 0.89 0.44 0.34 0.35 0.29 0.21 0.15 0.09 0.05 0.02 0.03 0.02 0.01 0.00 0.00 0.00 0.00 0.00 0.00 0.00 0.00 0.00 0.00 0.01 0.02 0.04 0.06 0.07 0.09 0.10 0.12 0.13 0.15 0.19 0.27 0.34 0.38 0.42 0.39 0.35 0.32 0.30 0.27
0.87 0.52 0.37 0.43 0.46 0.43 0.29 0.18 0.12 0.08 0.05 0.04 0.03 0.02 0.00 0.00 0.00 0.00 0.00 0.00 0.00 0.00 0.00 0.00 0.01 0.02 0.02 0.04 0.06 0.07 0.08 0.09 0.11 0.15 0.22 0.28 0.32 0.31 0.30 0.27 0.25 0.29 0.33 0.33
0.79 0.46 0.46 0.55 0.48 0.42 0.34 0.16 0.15 0.13 0.14 0.11 0.06 0.04 0.00 0.00 0.00 0.00 0.00 0.00 0.00 0.00 0.00 0.00 0.01 0.02 0.02 0.03 0.05 0.07 0.08 0.07 0.08 0.10 0.13 0.18 0.20 0.20 0.21 0.25 0.29 0.34 0.34 0.34
0.81 0.51 0.52 0.62 0.43 0.35 0.30 0.19 0.21 0.23 0.23 0.21 0.11 0.07 0.01 0.00 0.00 0.00 0.00 0.00 0.00 0.00 0.00 0.00 0.00 0.01 0.02 0.02 0.03 0.05 0.05 0.05 0.06 0.06 0.07 0.10 0.14 0.17 0.19 0.21 0.24 0.26 0.25 0.27
0.62 0.54 0.58 0.54 0.40 0.37 0.34 0.38 0.41 0.40 0.48 0.42 0.13 0.09 0.03 0.00 0.00 0.00 0.00 0.00 0.00 0.00 0.00 0.00 0.00 0.00 0.01 0.01 0.02 0.02 0.03 0.05 0.05 0.05 0.05 0.06 0.08 0.11 0.13 0.13 0.15 0.18 0.19 0.19
0.82 0.65 0.55 0.55 0.66 0.62 0.64 0.90 1.07 0.93 0.78 0.36 0.07 0.07 0.03 0.00 0.00 0.00 0.00 0.00 0.00 0.00 0.00 0.00 0.00 0.00 0.00 0.01 0.01 0.01 0.02 0.03 0.04 0.04 0.03 0.04 0.06 0.10 0.11 0.12 0.13 0.15 0.15 0.14
0.85 0.76 0.49 0.57 0.79 0.81 0.70 0.85 0.93 0.66 0.37 0.14 0.05 0.04 0.01 0.00 0.00 0.00 0.00 0.00 0.00 0.00 0.00 0.00 0.00 0.00 0.00 0.00 0.01 0.01 0.01 0.01 0.02 0.03 0.03 0.03 0.05 0.07 0.08 0.09 0.09 0.11 0.13 0.15
0.58 0.54 0.34 0.41 0.56 0.64 0.68 0.67 0.56 0.62 0.40 0.21 0.09 0.03 0.01 0.00 0.00 0.00 0.00 0.00 0.00 0.00 0.00 0.00 0.00 0.00 0.00 0.00 0.00 0.01 0.01 0.01 0.02 0.02 0.02 0.02 0.03 0.04 0.06 0.07 0.07 0.08 0.10 0.13
0.51 0.62 0.40 0.44 0.64 0.72 0.68 0.56 0.61 0.91 0.65 0.32 0.11 0.03 0.01 0.00 0.00 0.00 0.00 0.00 0.00 0.00 0.00 0.00 0.00 0.00 0.00 0.00 0.00 0.00 0.01 0.01 0.02 0.02 0.02 0.02 0.02 0.04 0.05 0.05 0.06 0.07 0.07 0.09
0.48 0.74 0.57 0.59 0.74 0.69 0.66 0.72 0.72 0.71 0.50 0.40 0.21 0.05 0.01 0.01 0.01 0.00 0.00 0.00 0.00 0.00 0.00 0.00 0.00 0.00 0.00 0.00 0.00 0.00 0.01 0.01 0.01 0.01 0.01 0.02 0.02 0.03 0.03 0.04 0.05 0.06 0.06 0.06
0.43 0.77 0.67 0.49 0.43 0.46 0.54 0.53 0.61 0.79 0.56 0.41 0.30 0.10 0.01 0.01 0.01 0.01 0.01 0.01 0.01 0.00 0.00 0.00 0.00 0.00 0.00 0.01 0.01 0.01 0.02 0.02 0.02 0.01 0.01 0.02 0.02 0.03 0.03 0.04 0.05 0.05 0.05 0.05
0.42 0.77 0.83 0.61 0.53 0.57 0.62 0.49 0.49 0.70 0.88 0.68 0.46 0.14 0.02 0.02 0.02 0.02 0.03 0.03 0.03 0.02 0.01 0.01 0.01 0.01 0.01 0.02 0.02 0.02 0.02 0.02 0.02 0.02 0.03 0.03 0.03 0.03 0.04 0.06 0.06 0.05 0.05 0.05
0.63 0.81 0.74 0.57 0.51 0.57 0.55 0.44 0.54 1.02 1.18 0.63 0.29 0.11 0.05 0.04 0.07 0.07 0.07 0.06 0.05 0.04 0.04 0.03 0.02 0.02 0.02 0.02 0.02 0.02 0.02 0.02 0.03 0.03 0.04 0.04 0.05 0.06 0.06 0.06 0.06 0.06 0.05 0.06
0.63 0.86 0.64 0.39 0.31 0.47 0.48 0.45 0.55 0.79 0.75 0.65 0.30 0.15 0.10 0.09 0.13 0.12 0.10 0.08 0.07 0.06 0.05 0.05 0.04 0.04 0.04 0.03 0.03 0.02 0.02 0.02 0.03 0.04 0.05 0.06 0.07 0.06 0.07 0.06 0.06 0.06 0.06 0.06
0.47 0.70 0.66 0.45 0.27 0.38 0.44 0.40 0.42 0.46 0.48 0.45 0.32 0.24 0.13 0.12 0.14 0.13 0.10 0.09 0.08 0.06 0.06 0.05 0.04 0.04 0.04 0.04 0.05 0.05 0.04 0.04 0.04 0.06 0.07 0.07 0.07 0.07 0.07 0.07 0.08 0.09 0.10 0.10
0.33 0.55 0.74 0.51 0.31 0.40 0.44 0.38 0.39 0.38 0.33 0.35 0.36 0.27 0.17 0.17 0.17 0.15 0.11 0.09 0.08 0.05 0.04 0.03 0.03 0.04 0.03 0.03 0.03 0.03 0.04 0.05 0.05 0.06 0.08 0.08 0.08 0.08 0.08 0.10 0.15 0.18 0.20 0.22
0.20 0.44 0.70 0.49 0.36 0.48 0.35 0.27 0.28 0.30 0.27 0.30 0.27 0.20 0.15 0.15 0.17 0.16 0.12 0.08 0.06 0.04 0.03 0.02 0.02 0.02 0.02 0.02 0.02 0.02 0.03 0.04 0.05 0.07 0.10 0.12 0.13 0.17 0.20 0.20 0.25 0.31 0.35 0.37
0.09 0.33 0.58 0.47 0.36 0.25 0.18 0.18 0.21 0.27 0.27 0.24 0.18 0.12 0.11 0.11 0.16 0.16 0.13 0.09 0.06 0.04 0.04 0.04 0.03 0.03 0.02 0.03 0.03 0.04 0.05 0.06 0.06 0.08 0.11 0.14 0.17 0.24 0.30 0.31 0.34 0.38 0.43 0.46
0.08 0.21 0.48 0.42 0.35 0.18 0.10 0.06 0.08 0.17 0.26 0.16 0.14 0.13 0.13 0.14 0.17 0.15 0.12 0.11 0.10 0.08 0.06 0.06 0.07 0.08 0.09 0.09 0.10 0.11 0.11 0.15 0.18 0.19 0.22 0.26 0.31 0.37 0.40 0.40 0.39 0.38 0.36 0.35
0.14 0.25 0.37 0.33 0.29 0.07 0.03 0.03 0.05 0.16 0.20 0.07 0.07 0.09 0.12 0.11 0.10 0.11 0.09 0.08 0.10 0.11 0.11 0.11 0.11 0.13 0.15 0.15 0.16 0.17 0.18 0.25 0.30 0.33 0.35 0.35 0.37 0.38 0.38 0.35 0.32 0.29 0.23 0.19
0.07 0.12 0.13 0.15 0.20 0.09 0.04 0.04 0.07 0.09 0.06 0.06 0.07 0.08 0.09 0.10 0.08 0.08 0.10 0.09 0.08 0.08 0.09 0.11 0.13 0.15 0.17 0.20 0.24 0.25 0.28 0.31 0.32 0.32 0.32 0.32 0.30 0.27 0.26 0.24 0.20 0.16 0.12 0.08
0.05 0.07 0.08 0.08 0.09 0.07 0.05 0.05 0.04 0.03 0.04 0.05 0.07 0.08 0.08 0.08 0.10 0.08 0.06 0.06 0.06 0.06 0.08 0.11 0.14 0.17 0.19 0.21 0.24 0.26 0.26 0.26 0.25 0.25 0.23 0.20 0.17 0.14 0.13 0.10 0.08 0.07 0.05 0.03
0.09 0.07 0.08 0.06 0.04 0.04 0.04 0.03 0.03 0.02 0.02 0.02 0.03 0.05 0.08 0.09 0.10 0.09 0.05 0.04 0.04 0.04 0.05 0.06 0.08 0.10 0.11 0.12 0.15 0.16 0.15 0.13 0.13 0.12 0.12 0.09 0.06 0.05 0.04 0.03 0.02 0.01 0.01 0.01
0.11 0.10 0.09 0.07 0.04 0.04 0.04 0.03 0.03 0.02 0.02 0.01 0.01 0.02 0.03 0.05 0.05 0.06 0.06 0.05 0.05 0.04 0.04 0.04 0.04 0.04 0.05 0.06 0.06 0.06 0.06 0.05 0.05 0.04 0.03 0.03 0.02 0.01 0.01 0.01 0.01 0.01 0.01 0.01
0.02 0.05 0.08 0.08 0.05 0.05 0.04 0.03 0.03 0.03 0.02 0.02 0.02 0.02 0.02 0.02 0.03 0.03 0.03 0.02 0.03 0.03 0.03 0.03 0.03 0.02 0.02 0.02 0.02 0.02 0.02 0.02 0.02 0.01 0.01 0.01 0.01 0.01 0.01 0.01 0.01 0.01 0.01 0.01

GEFSCGP_prec_meanprecacc_096.txt.gz
Total_Precipitation_Accumulation
1.33 1.24 0.90 0.51 0.35 0.23 0.17 0.14 0.10 0.07 0.06 0.07 0.07 0.05 0.04 0.05 0.03 0.02 0.02 0.02 0.02 0.02 0.02 0.04 0.06 0.09 0.11 0.12 0.16 0.19 0.21 0.26 0.30 0.32 0.31 0.29 0.31 0.35 0.37 0.37 0.36 0.31 0.26 0.22
1.26 0.92 0.46 0.37 0.38 0.33 0.26 0.20 0.12 0.07 0.05 0.05 0.04 0.04 0.03 0.03 0.03 0.01 0.01 0.01 0.01 0.01 0.01 0.02 0.04 0.07 0.09 0.10 0.11 0.14 0.16 0.20 0.22 0.24 0.28 0.34 0.42 0.46 0.49 0.47 0.42 0.38 0.35 0.31
0.89 0.54 0.38 0.44 0.48 0.47 0.33 0.22 0.14 0.10 0.07 0.06 0.05 0.03 0.02 0.02 0.01 0.00 0.00 0.01 0.00 0.00 0.00 0.01 0.02 0.04 0.05 0.08 0.09 0.10 0.13 0.16 0.17 0.23 0.32 0.39 0.42 0.40 0.36 0.32 0.30 0.34 0.39 0.40
0.80 0.46 0.47 0.56 0.50 0.45 0.38 0.20 0.17 0.15 0.17 0.13 0.07 0.06 0.00 0.01 0.01 0.00 0.00 0.00 0.00 0.00 0.00 0.01 0.01 0.03 0.05 0.05 0.08 0.10 0.12 0.12 0.14 0.17 0.20 0.24 0.26 0.26 0.27 0.32 0.37 0.42 0.41 0.42
0.81 0.52 0.52 0.63 0.44 0.37 0.34 0.23 0.23 0.24 0.24 0.23 0.13 0.08 0.02 0.00 0.00 0.00 0.00 0.00 0.00 0.00 0.00 0.00 0.01 0.02 0.03 0.04 0.06 0.08 0.09 0.11 0.13 0.14 0.15 0.18 0.21 0.25 0.28 0.30 0.33 0.35 0.35 0.37
0.62 0.54 0.58 0.54 0.40 0.38 0.36 0.42 0.44 0.42 0.49 0.44 0.15 0.10 0.03 0.00 0.00 0.00 0.00 0.00 0.00 0.00 0.00 0.00 0.00 0.01 0.02 0.03 0.04 0.05 0.07 0.11 0.14 0.15 0.15 0.16 0.17 0.20 0.21 0.22 0.24 0.27 0.27 0.27
0.83 0.65 0.55 0.56 0.66 0.62 0.65 0.92 1.10 0.95 0.80 0.37 0.08 0.07 0.03 0.00 0.00 0.00 0.00 0.00 0.00 0.00 0.00 0.00 0.00 0.00 0.01 0.02 0.03 0.04 0.05 0.07 0.09 0.11 0.10 0.10 0.14 0.18 0.20 0.21 0.21 0.22 0.20 0.18
0.85 0.76 0.49 0.58 0.79 0.81 0.70 0.85 0.95 0.68 0.39 0.14 0.06 0.05 0.01 0.00 0.00 0.00 0.00 0.00 0.00 0.00 0.00 0.00 0.00 0.00 0.00 0.01 0.02 0.03 0.04 0.05 0.06 0.07 0.08 0.09 0.11 0.13 0.14 0.15 0.16 0.17 0.17 0.19
0.59 0.54 0.34 0.41 0.57 0.65 0.69 0.68 0.57 0.64 0.41 0.22 0.09 0.03 0.01 0.00 0.00 0.00 0.00 0.00 0.00 0.00 0.00 0.00 0.00 0.00 0.00 0.00 0.01 0.02 0.02 0.04 0.06 0.07 0.07 0.07 0.08 0.09 0.11 0.12 0.12 0.13 0.14 0.16
0.52 0.63 0.40 0.44 0.65 0.73 0.69 0.57 0.64 0.95 0.69 0.34 0.11 0.04 0.02 0.01 0.00 0.00 0.00 0.00 0.00 0.00 0.00 0.00 0.00 0.00 0.00 0.00 0.00 0.01 0.02 0.03 0.05 0.06 0.06 0.06 0.06 0.07 0.08 0.08 0.08 0.09 0.10 0.11
0.49 0.74 0.58 0.59 0.75 0.70 0.67 0.74 0.74 0.74 0.54 0.43 0.24 0.07 0.02 0.01 0.01 0.01 0.00 0.00 0.00 0.00 0.00 0.00 0.00 0.00 0.00 0.00 0.00 0.01 0.01 0.02 0.02 0.03 0.04 0.05 0.05 0.05 0.05 0.06 0.06 0.07 0.07 0.08
0.43 0.78 0.67 0.49 0.43 0.46 0.55 0.54 0.63 0.83 0.59 0.45 0.34 0.13 0.03 0.02 0.02 0.02 0.01 0.01 0.01 0.00 0.00 0.00 0.00 0.00 0.00 0.01 0.01 0.02 0.02 0.02 0.02 0.02 0.03 0.03 0.04 0.04 0.05 0.06 0.06 0.06 0.06 0.06
0.42 0.78 0.83 0.62 0.54 0.58 0.63 0.50 0.50 0.73 0.93 0.72 0.51 0.18 0.03 0.03 0.03 0.03 0.03 0.04 0.03 0.02 0.01 0.01 0.01 0.01 0.01 0.02 0.02 0.02 0.02 0.03 0.03 0.03 0.03 0.04 0.03 0.04 0.05 0.06 0.06 0.05 0.05 0.06
0.64 0.82 0.74 0.58 0.53 0.59 0.57 0.46 0.56 1.06 1.24 0.66 0.30 0.13 0.06 0.05 0.08 0.08 0.07 0.07 0.06 0.05 0.04 0.03 0.02 0.02 0.02 0.02 0.02 0.02 0.02 0.02 0.03 0.04 0.04 0.05 0.06 0.06 0.07 0.07 0.06 0.06 0.06 0.06
0.63 0.88 0.64 0.39 0.31 0.47 0.49 0.46 0.56 0.82 0.77 0.68 0.32 0.16 0.11 0.10 0.14 0.14 0.11 0.08 0.07 0.06 0.05 0.05 0.04 0.04 0.04 0.03 0.03 0.02 0.02 0.03 0.03 0.05 0.06 0.06 0.07 0.07 0.07 0.07 0.06 0.07 0.07 0.06
0.48 0.71 0.67 0.45 0.28 0.38 0.44 0.41 0.43 0.47 0.49 0.47 0.33 0.25 0.13 0.12 0.15 0.14 0.11 0.09 0.08 0.07 0.06 0.05 0.05 0.04 0.04 0.04 0.05 0.05 0.04 0.04 0.04 0.06 0.07 0.07 0.07 0.07 0.07 0.07 0.08 0.09 0.10 0.10
0.34 0.56 0.74 0.51 0.31 0.40 0.44 0.38 0.39 0.38 0.34 0.36 0.37 0.28 0.18 0.18 0.18 0.15 0.12 0.09 0.08 0.05 0.04 0.03 0.03 0.04 0.03 0.03 0.03 0.03 0.04 0.05 0.05 0.06 0.08 0.08 0.08 0.08 0.08 0.10 0.15 0.19 0.21 0.22
0.20 0.45 0.71 0.50 0.36 0.48 0.35 0.27 0.29 0.31 0.28 0.30 0.28 0.21 0.16 0.16 0.18 0.17 0.12 0.09 0.06 0.04 0.03 0.02 0.02 0.02 0.02 0.02 0.02 0.02 0.03 0.04 0.06 0.07 0.10 0.12 0.14 0.17 0.20 0.20 0.25 0.31 0.35 0.37
0.09 0.33 0.59 0.48 0.36 0.26 0.18 0.18 0.21 0.28 0.29 0.25 0.18 0.13 0.11 0.12 0.17 0.17 0.14 0.09 0.06 0.05 0.04 0.04 0.03 0.03 0.02 0.03 0.03 0.04 0.05 0.06 0.06 0.08 0.11 0.14 0.17 0.24 0.30 0.31 0.34 0.38 0.43 0.46
0.08 0.22 0.49 0.43 0.37 0.18 0.11 0.07 0.09 0.18 0.27 0.17 0.15 0.14 0.14 0.15 0.18 0.16 0.13 0.11 0.10 0.09 0.07 0.06 0.07 0.08 0.09 0.09 0.10 0.11 0.11 0.15 0.18 0.19 0.22 0.26 0.31 0.37 0.40 0.40 0.39 0.38 0.36 0.35
0.15 0.26 0.38 0.34 0.31 0.08 0.04 0.04 0.06 0.19 0.23 0.10 0.09 0.11 0.14 0.13 0.12 0.12 0.10 0.09 0.11 0.12 0.12 0.11 0.11 0.13 0.15 0.15 0.16 0.17 0.18 0.25 0.30 0.33 0.35 0.36 0.38 0.39 0.39 0.36 0.33 0.29 0.24 0.19
0.07 0.12 0.14 0.16 0.22 0.11 0.05 0.06 0.10 0.13 0.10 0.09 0.10 0.11 0.12 0.12 0.10 0.09 0.11 0.10 0.09 0.08 0.10 0.12 0.13 0.15 0.18 0.21 0.25 0.26 0.28 0.32 0.32 0.33 0.33 0.32 0.30 0.28 0.28 0.25 0.21 0.16 0.12 0.08
0.05 0.07 0.08 0.09 0.10 0.08 0.07 0.07 0.07 0.06 0.07 0.07 0.09 0.10 0.09 0.09 0.10 0.09 0.08 0.08 0.08 0.08 0.09 0.11 0.15 0.17 0.19 0.21 0.25 0.27 0.27 0.26 0.25 0.25 0.23 0.20 0.17 0.15 0.13 0.11 0.09 0.07 0.05 0.03
0.09 0.07 0.08 0.07 0.04 0.04 0.05 0.05 0.05 0.04 0.03 0.03 0.04 0.05 0.08 0.10 0.10 0.09 0.06 0.06 0.06 0.06 0.07 0.08 0.10 0.11 0.11 0.12 0.15 0.17 0.15 0.14 0.13 0.13 0.12 0.10 0.07 0.05 0.04 0.03 0.02 0.02 0.01 0.01
0.12 0.10 0.09 0.07 0.04 0.04 0.04 0.04 0.04 0.03 0.02 0.02 0.01 0.02 0.04 0.05 0.06 0.07 0.06 0.06 0.06 0.06 0.06 0.06 0.06 0.06 0.06 0.06 0.07 0.07 0.06 0.06 0.05 0.05 0.04 0.03 0.03 0.02 0.02 0.01 0.01 0.01 0.01 0.01
0.03 0.06 0.09 0.09 0.05 0.05 0.05 0.03 0.04 0.03 0.02 0.02 0.02 0.03 0.03 0.03 0.04 0.03 0.03 0.03 0.04 0.05 0.05 0.06 0.06 0.06 0.06 0.05 0.04 0.04 0.03 0.03 0.03 0.03 0.02 0.02 0.02 0.02 0.01 0.01 0.01 0.02 0.02 0.02

GEFSCGP_prec_meanprecacc_102.txt.gz
Total_Precipitation_Accumulation
1.36 1.28 0.92 0.52 0.37 0.25 0.22 0.21 0.18 0.14 0.11 0.14 0.14 0.13 0.12 0.12 0.07 0.04 0.04 0.04 0.05 0.07 0.09 0.12 0.17 0.23 0.28 0.32 0.38 0.38 0.39 0.52 0.61 0.59 0.52 0.45 0.44 0.48 0.50 0.50 0.47 0.40 0.33 0.27
1.28 0.96 0.50 0.39 0.40 0.36 0.30 0.27 0.18 0.12 0.09 0.09 0.09 0.09 0.09 0.09 0.07 0.03 0.02 0.02 0.02 0.02 0.05 0.07 0.12 0.17 0.21 0.25 0.27 0.32 0.34 0.41 0.45 0.46 0.50 0.57 0.62 0.64 0.65 0.60 0.52 0.46 0.43 0.40
0.91 0.56 0.40 0.45 0.49 0.49 0.37 0.28 0.18 0.13 0.10 0.09 0.09 0.08 0.05 0.06 0.06 0.03 0.01 0.02 0.01 0.01 0.02 0.03 0.06 0.11 0.13 0.16 0.21 0.24 0.28 0.32 0.36 0.44 0.57 0.66 0.67 0.60 0.52 0.45 0.41 0.46 0.53 0.52
0.80 0.47 0.47 0.57 0.51 0.47 0.42 0.25 0.20 0.17 0.18 0.16 0.10 0.09 0.02 0.02 0.04 0.03 0.01 0.01 0.01 0.01 0.01 0.01 0.03 0.06 0.08 0.09 0.14 0.19 0.23 0.27 0.32 0.39 0.42 0.42 0.41 0.39 0.38 0.43 0.49 0.55 0.55 0.54
0.82 0.52 0.53 0.64 0.45 0.39 0.36 0.25 0.26 0.26 0.25 0.25 0.14 0.09 0.02 0.01 0.01 0.02 0.01 0.00 0.01 0.01 0.00 0.00 0.01 0.03 0.04 0.07 0.09 0.14 0.19 0.22 0.26 0.30 0.34 0.39 0.39 0.40 0.44 0.46 0.48 0.49 0.49 0.50
0.63 0.55 0.59 0.55 0.42 0.40 0.38 0.43 0.46 0.44 0.51 0.46 0.15 0.10 0.04 0.00 0.00 0.00 0.00 0.00 0.00 0.00 0.00 0.00 0.00 0.02 0.03 0.05 0.07 0.10 0.16 0.22 0.28 0.33 0.35 0.34 0.34 0.35 0.35 0.34 0.36 0.41 0.42 0.40
0.83 0.65 0.56 0.57 0.68 0.64 0.67 0.94 1.13 0.99 0.83 0.38 0.08 0.08 0.03 0.00 0.00 0.00 0.00 0.00 0.00 0.00 0.00 0.00 0.00 0.01 0.02 0.04 0.05 0.07 0.10 0.15 0.21 0.26 0.27 0.27 0.30 0.34 0.35 0.35 0.35 0.35 0.33 0.30
0.86 0.76 0.50 0.58 0.80 0.82 0.71 0.87 0.97 0.70 0.41 0.16 0.06 0.05 0.01 0.00 0.00 0.00 0.00 0.00 0.00 0.00 0.00 0.00 0.00 0.00 0.01 0.01 0.03 0.04 0.07 0.10 0.13 0.17 0.20 0.23 0.26 0.27 0.27 0.28 0.28 0.29 0.29 0.31
0.59 0.55 0.35 0.42 0.57 0.66 0.70 0.69 0.58 0.65 0.42 0.23 0.09 0.03 0.01 0.01 0.01 0.01 0.00 0.00 0.00 0.00 0.00 0.00 0.00 0.00 0.00 0.01 0.01 0.02 0.04 0.06 0.10 0.12 0.14 0.17 0.21 0.23 0.23 0.24 0.26 0.26 0.27 0.28
0.52 0.63 0.41 0.44 0.65 0.73 0.69 0.58 0.64 0.97 0.70 0.35 0.12 0.04 0.02 0.01 0.01 0.01 0.00 0.00 0.00 0.00 0.00 0.00 0.00 0.00 0.00 0.00 0.01 0.02 0.03 0.05 0.07 0.09 0.11 0.12 0.14 0.18 0.20 0.22 0.21 0.21 0.21 0.22
0.49 0.75 0.58 0.59 0.75 0.70 0.68 0.75 0.75 0.76 0.56 0.44 0.24 0.08 0.03 0.02 0.01 0.01 0.01 0.00 0.00 0.00 0.00 0.00 0.00 0.00 0.00 0.00 0.01 0.01 0.03 0.03 0.04 0.05 0.07 0.09 0.10 0.11 0.12 0.15 0.17 0.17 0.16 0.16
0.43 0.78 0.67 0.49 0.43 0.46 0.55 0.54 0.64 0.84 0.61 0.46 0.35 0.14 0.03 0.02 0.02 0.02 0.02 0.02 0.01 0.00 0.00 0.00 0.00 0.00 0.00 0.01 0.01 0.02 0.03 0.03 0.04 0.04 0.05 0.07 0.08 0.08 0.09 0.11 0.11 0.11 0.11 0.11
0.42 0.78 0.84 0.62 0.54 0.58 0.63 0.51 0.51 0.75 0.96 0.74 0.52 0.18 0.04 0.03 0.03 0.03 0.04 0.04 0.03 0.02 0.01 0.01 0.01 0.01 0.01 0.02 0.02 0.03 0.03 0.03 0.03 0.04 0.05 0.06 0.06 0.07 0.08 0.09 0.10 0.10 0.11 0.12
0.65 0.83 0.74 0.58 0.53 0.59 0.57 0.46 0.57 1.08 1.28 0.69 0.32 0.14 0.06 0.06 0.08 0.08 0.08 0.07 0.06 0.05 0.04 0.03 0.03 0.03 0.03 0.02 0.02 0.02 0.02 0.03 0.03 0.04 0.05 0.06 0.07 0.08 0.09 0.09 0.10 0.10 0.10 0.11
0.64 0.88 0.65 0.39 0.31 0.47 0.49 0.46 0.56 0.82 0.78 0.70 0.33 0.17 0.11 0.11 0.15 0.14 0.12 0.09 0.07 0.06 0.05 0.05 0.05 0.05 0.04 0.03 0.03 0.02 0.02 0.03 0.04 0.05 0.06 0.07 0.08 0.08 0.08 0.08 0.08 0.09 0.09 0.09
0.49 0.71 0.67 0.46 0.28 0.38 0.44 0.41 0.43 0.47 0.49 0.48 0.34 0.26 0.15 0.13 0.16 0.15 0.12 0.10 0.09 0.07 0.06 0.06 0.05 0.05 0.04 0.05 0.05 0.05 0.04 0.04 0.04 0.06 0.08 0.07 0.07 0.08 0.08 0.08 0.09 0.10 0.11 0.12
0.35 0.56 0.75 0.51 0.31 0.40 0.45 0.39 0.40 0.39 0.35 0.37 0.39 0.30 0.19 0.19 0.19 0.16 0.13 0.11 0.09 0.06 0.04 0.04 0.04 0.04 0.04 0.03 0.04 0.03 0.04 0.05 0.06 0.07 0.08 0.08 0.08 0.08 0.08 0.10 0.15 0.19 0.21 0.23
0.21 0.45 0.72 0.50 0.36 0.48 0.35 0.27 0.29 0.32 0.30 0.32 0.29 0.22 0.17 0.17 0.18 0.17 0.14 0.10 0.07 0.05 0.03 0.02 0.02 0.03 0.03 0.03 0.03 0.02 0.03 0.05 0.06 0.07 0.10 0.13 0.14 0.18 0.20 0.21 0.25 0.31 0.35 0.37
0.09 0.33 0.59 0.48 0.37 0.26 0.19 0.18 0.21 0.28 0.30 0.26 0.19 0.13 0.11 0.12 0.17 0.17 0.14 0.10 0.07 0.05 0.05 0.04 0.04 0.03 0.03 0.03 0.03 0.04 0.05 0.06 0.07 0.08 0.12 0.15 0.17 0.24 0.30 0.31 0.34 0.39 0.43 0.47
0.08 0.22 0.50 0.44 0.38 0.18 0.11 0.07 0.09 0.19 0.29 0.18 0.16 0.15 0.14 0.16 0.19 0.17 0.13 0.12 0.11 0.09 0.07 0.07 0.07 0.08 0.09 0.09 0.10 0.11 0.12 0.15 0.18 0.19 0.22 0.27 0.31 0.37 0.41 0.40 0.40 0.39 0.37 0.36
0.15 0.26 0.38 0.34 0.31 0.08 0.04 0.04 0.07 0.20 0.25 0.11 0.10 0.12 0.15 0.14 0.13 0.13 0.10 0.10 0.12 0.13 0.12 0.12 0.12 0.14 0.15 0.15 0.17 0.18 0.19 0.25 0.31 0.34 0.36 0.36 0.38 0.39 0.40 0.37 0.34 0.30 0.25 0.20
0.07 0.12 0.14 0.16 0.22 0.11 0.05 0.06 0.10 0.13 0.10 0.10 0.11 0.12 0.13 0.13 0.10 0.10 0.11 0.11 0.09 0.09 0.11 0.13 0.14 0.17 0.19 0.21 0.25 0.27 0.29 0.33 0.33 0.33 0.33 0.32 0.31 0.29 0.28 0.26 0.23 0.19 0.15 0.11
0.05 0.07 0.08 0.09 0.10 0.08 0.07 0.07 0.07 0.07 0.07 0.08 0.09 0.11 0.10 0.10 0.11 0.09 0.08 0.08 0.08 0.09 0.10 0.12 0.16 0.18 0.21 0.22 0.26 0.28 0.28 0.27 0.26 0.26 0.24 0.21 0.17 0.16 0.15 0.13 0.11 0.09 0.08 0.06
0.09 0.07 0.08 0.07 0.04 0.04 0.05 0.05 0.05 0.04 0.04 0.03 0.04 0.06 0.09 0.11 0.11 0.10 0.07 0.06 0.06 0.07 0.08 0.09 0.11 0.12 0.13 0.14 0.16 0.18 0.17 0.16 0.15 0.14 0.14 0.12 0.09 0.07 0.06 0.05 0.04 0.03 0.03 0.02
0.12 0.10 0.09 0.07 0.04 0.04 0.04 0.04 0.04 0.03 0.02 0.02 0.02 0.02 0.04 0.06 0.06 0.08 0.07 0.07 0.07 0.06 0.07 0.07 0.08 0.08 0.08 0.08 0.09 0.09 0.08 0.08 0.08 0.08 0.07 0.07 0.05 0.05 0.05 0.04 0.04 0.03 0.03 0.03
0.03 0.06 0.09 0.09 0.05 0.06 0.05 0.04 0.04 0.03 0.03 0.02 0.03 0.03 0.03 0.04 0.05 0.04 0.04 0.04 0.04 0.06 0.06 0.07 0.07 0.08 0.09 0.08 0.07 0.06 0.06 0.06 0.06 0.07 0.07 0.07 0.06 0.06 0.06 0.05 0.05 0.05 0.05 0.05

GEFSCGP_prec_meanprecacc_108.txt.gz
Total_Precipitation_Accumulation
1.38 1.31 0.96 0.55 0.39 0.28 0.25 0.28 0.24 0.19 0.16 0.19 0.19 0.17 0.17 0.18 0.12 0.08 0.09 0.10 0.13 0.17 0.22 0.27 0.33 0.41 0.49 0.59 0.72 0.71 0.77 0.93 0.95 0.90 0.82 0.66 0.57 0.57 0.59 0.56 0.54 0.47 0.40 0.34
1.30 0.99 0.53 0.40 0.40 0.36 0.32 0.31 0.23 0.17 0.12 0.13 0.13 0.12 0.13 0.15 0.13 0.06 0.05 0.06 0.07 0.09 0.14 0.17 0.24 0.32 0.40 0.48 0.53 0.59 0.62 0.75 0.84 0.80 0.79 0.83 0.82 0.78 0.77 0.70 0.60 0.53 0.51 0.49
0.92 0.58 0.41 0.46 0.50 0.50 0.39 0.31 0.23 0.19 0.15 0.13 0.13 0.11 0.10 0.11 0.11 0.07 0.04 0.05 0.05 0.06 0.08 0.11 0.13 0.21 0.29 0.35 0.42 0.45 0.48 0.53 0.63 0.77 0.87 0.92 0.91 0.80 0.67 0.57 0.53 0.57 0.63 0.63
0.81 0.47 0.48 0.57 0.51 0.47 0.43 0.26 0.23 0.21 0.23 0.21 0.14 0.14 0.07 0.06 0.09 0.07 0.04 0.04 0.05 0.04 0.04 0.06 0.08 0.11 0.16 0.21 0.30 0.38 0.43 0.48 0.54 0.69 0.70 0.65 0.60 0.58 0.55 0.57 0.62 0.67 0.67 0.67
0.83 0.53 0.54 0.64 0.45 0.40 0.38 0.28 0.29 0.30 0.30 0.28 0.17 0.14 0.08 0.06 0.06 0.06 0.03 0.03 0.03 0.02 0.02 0.03 0.05 0.07 0.09 0.13 0.20 0.28 0.36 0.40 0.47 0.55 0.58 0.61 0.61 0.63 0.67 0.67 0.65 0.63 0.61 0.63
0.63 0.55 0.59 0.56 0.42 0.40 0.40 0.47 0.50 0.47 0.54 0.48 0.17 0.12 0.07 0.04 0.04 0.05 0.03 0.02 0.02 0.01 0.01 0.02 0.02 0.04 0.05 0.08 0.12 0.19 0.28 0.35 0.43 0.51 0.55 0.56 0.54 0.56 0.58 0.58 0.59 0.61 0.60 0.57
0.83 0.66 0.56 0.57 0.68 0.65 0.68 0.96 1.17 1.02 0.85 0.40 0.09 0.09 0.06 0.02 0.02 0.03 0.02 0.01 0.01 0.00 0.01 0.01 0.01 0.02 0.02 0.05 0.07 0.10 0.15 0.22 0.30 0.37 0.40 0.44 0.51 0.54 0.53 0.52 0.53 0.54 0.50 0.47
0.86 0.77 0.51 0.59 0.81 0.83 0.72 0.88 1.00 0.72 0.43 0.17 0.07 0.06 0.03 0.01 0.01 0.01 0.01 0.01 0.00 0.00 0.00 0.01 0.01 0.01 0.01 0.02 0.04 0.06 0.10 0.13 0.18 0.23 0.28 0.33 0.38 0.41 0.42 0.43 0.43 0.42 0.40 0.42
0.60 0.56 0.35 0.42 0.57 0.66 0.70 0.69 0.59 0.66 0.43 0.23 0.10 0.04 0.02 0.01 0.01 0.01 0.01 0.01 0.00 0.00 0.00 0.00 0.01 0.00 0.00 0.01 0.02 0.03 0.05 0.08 0.13 0.16 0.20 0.24 0.28 0.32 0.34 0.37 0.39 0.39 0.38 0.39
0.52 0.63 0.41 0.44 0.65 0.73 0.70 0.58 0.65 0.98 0.71 0.36 0.12 0.04 0.03 0.02 0.01 0.01 0.02 0.01 0.01 0.00 0.00 0.00 0.01 0.00 0.00 0.00 0.01 0.02 0.04 0.06 0.08 0.11 0.14 0.17 0.22 0.26 0.29 0.32 0.32 0.33 0.32 0.32
0.49 0.75 0.58 0.60 0.75 0.70 0.68 0.75 0.76 0.76 0.57 0.45 0.25 0.10 0.05 0.03 0.02 0.02 0.02 0.02 0.01 0.01 0.01 0.01 0.01 0.00 0.00 0.00 0.01 0.02 0.03 0.04 0.05 0.07 0.09 0.13 0.17 0.19 0.21 0.24 0.26 0.26 0.26 0.25
0.43 0.78 0.67 0.49 0.43 0.47 0.55 0.55 0.64 0.85 0.61 0.47 0.36 0.15 0.05 0.04 0.03 0.03 0.04 0.03 0.02 0.01 0.01 0.01 0.01 0.01 0.01 0.01 0.01 0.02 0.03 0.04 0.05 0.05 0.07 0.10 0.12 0.13 0.15 0.19 0.19 0.20 0.22 0.22
0.42 0.78 0.84 0.62 0.54 0.58 0.63 0.51 0.52 0.76 0.97 0.75 0.53 0.19 0.05 0.04 0.04 0.04 0.05 0.05 0.04 0.03 0.02 0.02 0.02 0.02 0.02 0.02 0.03 0.03 0.04 0.04 0.05 0.05 0.06 0.08 0.10 0.10 0.11 0.14 0.15 0.16 0.19 0.22
0.65 0.83 0.74 0.58 0.53 0.59 0.57 0.46 0.57 1.09 1.29 0.69 0.32 0.14 0.07 0.07 0.09 0.09 0.08 0.07 0.07 0.06 0.04 0.03 0.03 0.03 0.03 0.03 0.02 0.03 0.03 0.04 0.05 0.06 0.07 0.07 0.09 0.10 0.11 0.12 0.12 0.14 0.14 0.16
0.65 0.89 0.65 0.39 0.31 0.47 0.49 0.46 0.56 0.82 0.79 0.70 0.33 0.17 0.12 0.12 0.16 0.15 0.12 0.09 0.08 0.07 0.06 0.05 0.05 0.05 0.04 0.03 0.03 0.02 0.03 0.04 0.05 0.06 0.08 0.08 0.09 0.09 0.10 0.10 0.10 0.11 0.12 0.13
0.49 0.72 0.67 0.46 0.28 0.38 0.44 0.41 0.43 0.48 0.50 0.48 0.35 0.27 0.15 0.14 0.16 0.15 0.12 0.11 0.10 0.08 0.07 0.06 0.05 0.05 0.04 0.05 0.05 0.05 0.05 0.04 0.05 0.07 0.08 0.08 0.08 0.09 0.09 0.10 0.11 0.12 0.13 0.15
0.36 0.57 0.75 0.51 0.31 0.40 0.45 0.39 0.40 0.40 0.36 0.38 0.40 0.30 0.19 0.19 0.19 0.17 0.14 0.12 0.10 0.07 0.05 0.04 0.04 0.04 0.04 0.04 0.04 0.04 0.04 0.05 0.06 0.07 0.09 0.09 0.09 0.09 0.09 0.12 0.17 0.21 0.23 0.25
0.21 0.46 0.72 0.50 0.36 0.48 0.35 0.27 0.29 0.32 0.31 0.32 0.30 0.22 0.17 0.17 0.19 0.18 0.15 0.11 0.08 0.05 0.04 0.03 0.02 0.03 0.03 0.03 0.03 0.02 0.03 0.05 0.07 0.08 0.12 0.14 0.14 0.18 0.21 0.22 0.26 0.33 0.37 0.39
0.09 0.33 0.60 0.49 0.37 0.26 0.19 0.18 0.21 0.28 0.30 0.26 0.19 0.13 0.11 0.12 0.17 0.18 0.15 0.11 0.08 0.06 0.06 0.05 0.05 0.04 0.04 0.03 0.04 0.04 0.05 0.06 0.07 0.09 0.13 0.16 0.19 0.25 0.31 0.32 0.35 0.40 0.45 0.49
0.08 0.22 0.50 0.44 0.38 0.18 0.11 0.07 0.09 0.19 0.30 0.18 0.16 0.15 0.14 0.16 0.19 0.17 0.13 0.12 0.12 0.10 0.08 0.08 0.09 0.09 0.10 0.10 0.11 0.12 0.12 0.16 0.19 0.19 0.23 0.27 0.32 0.38 0.42 0.41 0.41 0.40 0.38 0.38
0.15 0.27 0.38 0.35 0.31 0.08 0.04 0.04 0.07 0.20 0.25 0.11 0.10 0.12 0.15 0.14 0.13 0.13 0.10 0.10 0.13 0.14 0.13 0.13 0.13 0.15 0.17 0.16 0.17 0.19 0.20 0.27 0.32 0.35 0.36 0.37 0.39 0.40 0.41 0.38 0.36 0.32 0.26 0.22
0.07 0.12 0.14 0.16 0.22 0.11 0.05 0.06 0.10 0.13 0.10 0.10 0.11 0.13 0.13 0.13 0.11 0.10 0.12 0.11 0.10 0.10 0.12 0.14 0.16 0.17 0.20 0.23 0.26 0.27 0.30 0.34 0.34 0.34 0.34 0.34 0.32 0.30 0.30 0.28 0.25 0.22 0.18 0.13
0.05 0.07 0.08 0.09 0.10 0.08 0.07 0.07 0.07 0.07 0.07 0.08 0.09 0.11 0.10 0.10 0.11 0.09 0.08 0.08 0.08 0.09 0.11 0.14 0.17 0.20 0.22 0.24 0.27 0.29 0.29 0.28 0.28 0.27 0.25 0.23 0.20 0.19 0.17 0.15 0.14 0.13 0.11 0.09
0.09 0.07 0.08 0.07 0.04 0.04 0.05 0.05 0.05 0.04 0.04 0.03 0.04 0.06 0.09 0.11 0.11 0.10 0.07 0.06 0.07 0.07 0.08 0.10 0.12 0.14 0.15 0.15 0.17 0.19 0.18 0.17 0.17 0.16 0.16 0.14 0.12 0.10 0.09 0.09 0.09 0.08 0.07 0.06
0.12 0.10 0.09 0.07 0.05 0.04 0.04 0.04 0.04 0.03 0.02 0.02 0.02 0.02 0.04 0.06 0.07 0.08 0.07 0.07 0.07 0.07 0.07 0.08 0.08 0.09 0.10 0.10 0.10 0.10 0.09 0.09 0.10 0.10 0.11 0.10 0.10 0.09 0.09 0.09 0.09 0.09 0.09 0.09
0.03 0.06 0.09 0.09 0.06 0.06 0.05 0.04 0.04 0.03 0.03 0.02 0.03 0.03 0.03 0.04 0.05 0.04 0.04 0.04 0.05 0.06 0.07 0.07 0.07 0.09 0.11 0.11 0.09 0.09 0.07 0.07 0.09 0.10 0.10 0.10 0.10 0.10 0.10 0.10 0.10 0.11 0.11 0.11